Darstellungsparameter: Aktuell verwendete Einstellungen:
Skalierung der Graphiken ... ?
xyx+y,   Skalierungsfaktor:      Skalierung: Modus: x, Faktor: 1
Darstellungszeitraum ... ?
Vom - - bis: - -   Zeitraum: 29.05.2017 - 04.06.2017
Min/Max/Avg-Anzeige ... ?
Zeige MMA aktuell
Zeige MMA Monat
Zeige MMA alles
Zeige --A aktuell
Zeige --A Monat
Zeige --A alles
Keine MMA-Anzeige
MMA:
Keine MMA-Graphiken
MMA-Basis: 29.05.2017 - 04.06.2017
Quicknavigation für Darstellung... ?
Tage:      1T, 2T, 3T, 5T -1T -2T -3T -5T +1T +2T +3T +5T
Wochen: 1W, 2W, 3W -1W -2W -3W +1W +2W +3W
Monate: 1M, 3M, 6M -1M -3M -6M +1M +3M +6M
Jahre:    1J, 3J, 5J, 10J -1J -3J -5J -10J +1J +3J +5J +10J
Nutze für die Darstellung ... ?
Originaldaten oder Mittelwerte auf ...
Stundenbasis Tagesbasis Wochenbasis
Monatsbasis Jahresbasis      Datenbasis: Original-Daten
Darstellen als:
Statistik (Auto) Statistik J:M      Darstellung:
Zur Graphik,    zurück zur Übersicht aller Sensoren.
 
Tabellarische Datenbersicht: ?
 
Sensor: Nr:Datum:Temp:Feuchte:
Aussen-T/F 1 29-05-2017 00:04:17 17.7 C 45 %
2 29-05-2017 00:16:17 17.5 C 44 %
3 29-05-2017 00:28:17 17.5 C 45 %
4 29-05-2017 00:40:17 17.4 C 45 %
5 29-05-2017 00:52:17 17.3 C 47 %
6 29-05-2017 01:04:17 17.1 C 47 %
7 29-05-2017 01:16:17 16.9 C 47 %
8 29-05-2017 01:28:17 16.9 C 50 %
9 29-05-2017 01:40:17 16.7 C 50 %
10 29-05-2017 01:52:17 16.6 C 51 %
11 29-05-2017 02:04:17 16.5 C 53 %
12 29-05-2017 02:16:17 16.4 C 53 %
13 29-05-2017 02:28:17 16.2 C 53 %
14 29-05-2017 02:40:17 16.1 C 54 %
15 29-05-2017 02:52:17 16 C 54 %
16 29-05-2017 03:04:17 15.9 C 55 %
17 29-05-2017 03:16:17 15.8 C 56 %
18 29-05-2017 03:28:17 15.8 C 57 %
19 29-05-2017 03:40:17 15.8 C 58 %
20 29-05-2017 03:52:17 16 C 59 %
21 29-05-2017 04:04:17 16.2 C 60 %
22 29-05-2017 04:16:17 16.4 C 61 %
23 29-05-2017 04:28:17 16.7 C 62 %
24 29-05-2017 04:40:17 16.8 C 62 %
25 29-05-2017 04:52:17 16.7 C 62 %
Sensor: Nr:Datum:Temp:Feuchte:
Aussen-T/F 26 29-05-2017 05:04:17 16.7 C 61 %
27 29-05-2017 05:16:17 16.7 C 61 %
28 29-05-2017 05:28:17 16.8 C 61 %
29 29-05-2017 05:40:17 16.8 C 61 %
30 29-05-2017 05:52:17 16.8 C 61 %
31 29-05-2017 06:04:17 16.9 C 60 %
32 29-05-2017 06:16:17 16.8 C 60 %
33 29-05-2017 06:28:17 17 C 60 %
34 29-05-2017 06:40:17 17.3 C 60 %
35 29-05-2017 06:52:17 17.3 C 59 %
36 29-05-2017 07:04:17 17.2 C 57 %
37 29-05-2017 07:16:17 17.2 C 56 %
38 29-05-2017 07:28:17 17.1 C 54 %
39 29-05-2017 07:40:17 17.1 C 53 %
40 29-05-2017 07:52:17 17.2 C 54 %
41 29-05-2017 08:04:17 17.2 C 54 %
42 29-05-2017 08:16:16 17.6 C 56 %
43 29-05-2017 08:28:16 17.7 C 56 %
44 29-05-2017 08:40:17 17.7 C 56 %
45 29-05-2017 08:52:17 18.2 C 52 %
46 29-05-2017 09:04:17 18.3 C 51 %
47 29-05-2017 09:16:17 19 C 51 %
48 29-05-2017 09:28:17 20 C 45 %
49 29-05-2017 09:40:17 20.8 C 45 %
50 29-05-2017 09:52:17 20.8 C 45 %
Sensor: Nr:Datum:Temp:Feuchte:
Aussen-T/F 51 29-05-2017 10:04:17 21.6 C 29 %
52 29-05-2017 10:16:17 21.3 C 26 %
53 29-05-2017 10:28:17 23.5 C 20 %
54 29-05-2017 10:40:17 24.6 C 20 %
55 29-05-2017 10:52:17 24.6 C 20 %
56 29-05-2017 11:04:18 24.8 C 20 %
57 29-05-2017 11:16:17 25 C 20 %
58 29-05-2017 11:28:17 25.2 C 20 %
59 29-05-2017 11:40:17 26.2 C 20 %
60 29-05-2017 11:52:17 26.2 C 20 %
61 29-05-2017 12:04:17 26.1 C 20 %
62 29-05-2017 12:16:17 26 C 20 %
63 29-05-2017 12:28:17 26.1 C 20 %
64 29-05-2017 12:40:17 26.7 C 20 %
65 29-05-2017 12:52:17 27 C 20 %
66 29-05-2017 13:04:17 27.7 C 20 %
67 29-05-2017 13:16:17 27.3 C 20 %
68 29-05-2017 13:28:17 27.7 C 20 %
69 29-05-2017 13:40:18 28.1 C 20 %
70 29-05-2017 13:52:17 28.6 C 20 %
71 29-05-2017 14:04:17 29.3 C 20 %
72 29-05-2017 14:16:17 30.4 C 20 %
73 29-05-2017 14:28:17 30.7 C 20 %
74 29-05-2017 14:40:17 34.9 C 20 %
75 29-05-2017 14:52:17 36.7 C 20 %
Sensor: Nr:Datum:Temp:Feuchte:
Aussen-T/F 76 29-05-2017 15:04:17 37.9 C 20 %
77 29-05-2017 15:16:17 37.3 C 20 %
78 29-05-2017 15:28:17 35.9 C 20 %
79 29-05-2017 15:40:17 35.6 C 20 %
80 29-05-2017 15:52:17 34.8 C 20 %
81 29-05-2017 16:04:17 35 C 20 %
82 29-05-2017 16:16:17 34.9 C 20 %
83 29-05-2017 16:28:17 35.7 C 20 %
84 29-05-2017 16:40:17 37.8 C 20 %
85 29-05-2017 16:52:17 39.5 C 20 %
86 29-05-2017 17:04:17 38.6 C 20 %
87 29-05-2017 17:16:17 38.2 C 20 %
88 29-05-2017 17:28:17 38 C 20 %
89 29-05-2017 17:40:17 40.5 C 20 %
90 29-05-2017 17:52:17 44.6 C 20 %
91 29-05-2017 18:04:18 44.3 C 20 %
92 29-05-2017 18:16:17 43.9 C 20 %
93 29-05-2017 18:28:17 43.9 C 20 %
94 29-05-2017 18:40:17 41.6 C 20 %
95 29-05-2017 18:52:17 41.5 C 20 %
96 29-05-2017 19:04:17 42.1 C 20 %
97 29-05-2017 19:16:17 39.7 C 20 %
98 29-05-2017 19:28:17 32.7 C 20 %
99 29-05-2017 19:40:17 30 C 20 %
100 29-05-2017 19:52:17 28.7 C 20 %
Sensor: Nr:Datum:Temp:Feuchte:
Aussen-T/F 101 29-05-2017 20:04:17 27.8 C 20 %
102 29-05-2017 20:16:17 27 C 20 %
103 29-05-2017 20:28:17 26.3 C 20 %
104 29-05-2017 20:40:17 25.7 C 20 %
105 29-05-2017 20:52:17 25 C 20 %
106 29-05-2017 21:04:17 24.5 C 20 %
107 29-05-2017 21:16:17 24.2 C 20 %
108 29-05-2017 21:28:17 23.7 C 20 %
109 29-05-2017 21:40:17 23.3 C 20 %
110 29-05-2017 21:52:17 22.8 C 20 %
111 29-05-2017 22:04:17 22.4 C 20 %
112 29-05-2017 22:16:17 22 C 20 %
113 29-05-2017 22:28:17 21.6 C 20 %
114 29-05-2017 22:40:17 21.6 C 20 %
115 29-05-2017 22:52:17 21.7 C 20 %
116 29-05-2017 23:04:17 21.8 C 20 %
117 29-05-2017 23:16:17 21.2 C 20 %
118 29-05-2017 23:28:17 20.6 C 20 %
119 29-05-2017 23:40:17 20.2 C 20 %
120 29-05-2017 23:52:17 19.9 C 20 %
121 30-05-2017 00:04:17 19.8 C 20 %
122 30-05-2017 00:16:17 19.8 C 20 %
123 30-05-2017 00:28:17 19.5 C 20 %
124 30-05-2017 00:40:17 19.3 C 20 %
125 30-05-2017 00:52:17 19.2 C 20 %
Sensor: Nr:Datum:Temp:Feuchte:
Aussen-T/F 126 30-05-2017 01:04:17 18.8 C 20 %
127 30-05-2017 01:16:17 18.8 C 20 %
128 30-05-2017 01:28:17 18.8 C 20 %
129 30-05-2017 01:40:17 18.2 C 20 %
130 30-05-2017 01:52:17 18.4 C 20 %
131 30-05-2017 02:04:17 18.8 C 20 %
132 30-05-2017 02:16:17 18.6 C 20 %
133 30-05-2017 02:28:17 18.3 C 20 %
134 30-05-2017 02:40:17 18.8 C 20 %
135 30-05-2017 02:52:17 18.4 C 20 %
136 30-05-2017 03:04:17 18.3 C 21 %
137 30-05-2017 03:16:17 18.2 C 21 %
138 30-05-2017 03:28:17 18 C 23 %
139 30-05-2017 03:40:17 17.9 C 25 %
140 30-05-2017 03:52:17 17.9 C 25 %
141 30-05-2017 04:04:17 18.2 C 24 %
142 30-05-2017 04:16:17 18.1 C 24 %
143 30-05-2017 04:28:17 18.2 C 25 %
144 30-05-2017 04:40:17 18.4 C 25 %
145 30-05-2017 04:52:17 18.5 C 23 %
146 30-05-2017 05:04:18 18.4 C 21 %
147 30-05-2017 05:16:17 18.4 C 22 %
148 30-05-2017 05:28:17 18.2 C 23 %
149 30-05-2017 05:40:17 18.2 C 25 %
150 30-05-2017 05:52:17 18.2 C 25 %
Sensor: Nr:Datum:Temp:Feuchte:
Aussen-T/F 151 30-05-2017 06:04:17 18.2 C 25 %
152 30-05-2017 06:16:17 18.2 C 25 %
153 30-05-2017 06:28:17 17.9 C 26 %
154 30-05-2017 06:40:17 17.5 C 27 %
155 30-05-2017 06:52:17 17.5 C 28 %
156 30-05-2017 07:04:17 18.1 C 30 %
157 30-05-2017 07:16:17 18.3 C 30 %
158 30-05-2017 07:28:17 18.8 C 28 %
159 30-05-2017 07:40:17 19.2 C 26 %
160 30-05-2017 07:52:17 19.7 C 25 %
161 30-05-2017 08:04:17 20.4 C 22 %
162 30-05-2017 08:16:17 20.4 C 20 %
163 30-05-2017 08:28:17 20.5 C 21 %
164 30-05-2017 08:40:17 20.8 C 21 %
165 30-05-2017 08:52:17 21.2 C 20 %
166 30-05-2017 09:04:17 21.5 C 20 %
167 30-05-2017 09:16:17 22.1 C 20 %
168 30-05-2017 09:28:17 22.8 C 20 %
169 30-05-2017 09:40:17 23.7 C 20 %
170 30-05-2017 09:52:17 23.8 C 20 %
171 30-05-2017 10:04:17 24.1 C 20 %
172 30-05-2017 10:16:17 24.1 C 20 %
173 30-05-2017 10:28:17 26 C 20 %
174 30-05-2017 10:40:17 27.8 C 20 %
175 30-05-2017 10:52:17 27.1 C 20 %
Sensor: Nr:Datum:Temp:Feuchte:
Aussen-T/F 176 30-05-2017 11:04:17 26.3 C 20 %
177 30-05-2017 11:16:17 26.1 C 20 %
178 30-05-2017 11:28:17 26.2 C 20 %
179 30-05-2017 11:40:17 26.8 C 20 %
180 30-05-2017 11:52:17 27.2 C 20 %
181 30-05-2017 12:04:17 27.6 C 20 %
182 30-05-2017 12:16:17 28 C 20 %
183 30-05-2017 12:28:17 28.2 C 20 %
184 30-05-2017 12:40:17 28.3 C 20 %
185 30-05-2017 12:52:17 28 C 20 %
186 30-05-2017 13:04:17 29 C 20 %
187 30-05-2017 13:16:17 29.7 C 20 %
188 30-05-2017 13:28:17 28.8 C 20 %
189 30-05-2017 13:40:17 29.2 C 20 %
190 30-05-2017 13:52:17 29.3 C 20 %
191 30-05-2017 14:04:17 30 C 20 %
192 30-05-2017 14:16:16 29.6 C 20 %
193 30-05-2017 14:28:17 28.7 C 20 %
194 30-05-2017 14:40:17 29.7 C 20 %
195 30-05-2017 14:52:17 29.6 C 20 %
196 30-05-2017 15:04:17 31.5 C 20 %
197 30-05-2017 15:16:17 29.6 C 20 %
198 30-05-2017 15:28:17 27 C 20 %
199 30-05-2017 15:40:17 24.3 C 20 %
200 30-05-2017 15:52:17 22.9 C 20 %
Sensor: Nr:Datum:Temp:Feuchte:
Aussen-T/F 201 30-05-2017 16:04:17 23.5 C 20 %
202 30-05-2017 16:16:18 25.2 C 20 %
203 30-05-2017 16:28:18 27.2 C 20 %
204 30-05-2017 16:40:17 26.6 C 20 %
205 30-05-2017 16:52:17 26.9 C 20 %
206 30-05-2017 17:04:17 26.1 C 20 %
207 30-05-2017 17:16:17 26.1 C 20 %
208 30-05-2017 17:28:17 26.4 C 20 %
209 30-05-2017 17:40:17 24.8 C 20 %
210 30-05-2017 17:52:17 24.8 C 20 %
211 30-05-2017 18:04:17 23.9 C 20 %
212 30-05-2017 18:16:17 24 C 20 %
213 30-05-2017 18:28:17 31 C 20 %
214 30-05-2017 18:40:17 29.1 C 20 %
215 30-05-2017 18:52:17 30.4 C 20 %
216 30-05-2017 19:04:17 29.1 C 20 %
217 30-05-2017 19:16:17 28.5 C 20 %
218 30-05-2017 19:28:17 27.2 C 20 %
219 30-05-2017 19:40:17 25.7 C 20 %
220 30-05-2017 19:52:17 25.2 C 20 %
221 30-05-2017 20:04:17 24.5 C 20 %
222 30-05-2017 20:16:17 24.2 C 20 %
223 30-05-2017 20:28:17 23.5 C 20 %
224 30-05-2017 20:40:17 23.3 C 20 %
225 30-05-2017 20:52:17 23.2 C 20 %
Sensor: Nr:Datum:Temp:Feuchte:
Aussen-T/F 226 30-05-2017 21:04:17 22.9 C 20 %
227 30-05-2017 21:16:17 22.9 C 20 %
228 30-05-2017 21:28:17 22.9 C 20 %
229 30-05-2017 21:40:17 22.9 C 20 %
230 30-05-2017 21:52:17 22.9 C 20 %
231 30-05-2017 22:04:17 22.9 C 20 %
232 30-05-2017 22:16:17 21 C 20 %
233 30-05-2017 22:28:17 20.6 C 20 %
234 30-05-2017 22:40:17 20.4 C 20 %
235 30-05-2017 22:52:17 20 C 20 %
236 30-05-2017 23:04:17 19.9 C 20 %
237 30-05-2017 23:16:17 19.6 C 20 %
238 30-05-2017 23:28:17 19.3 C 20 %
239 30-05-2017 23:40:17 19 C 20 %
240 30-05-2017 23:52:17 18.3 C 20 %
241 31-05-2017 00:04:17 17.8 C 20 %
242 31-05-2017 00:16:17 18 C 20 %
243 31-05-2017 00:28:17 17.9 C 20 %
244 31-05-2017 00:40:17 18 C 20 %
245 31-05-2017 00:52:17 17.9 C 20 %
246 31-05-2017 01:04:17 17.7 C 20 %
247 31-05-2017 01:16:17 17.7 C 20 %
248 31-05-2017 01:28:17 17.8 C 20 %
249 31-05-2017 01:40:17 17.5 C 20 %
250 31-05-2017 01:52:17 17.2 C 20 %
Sensor: Nr:Datum:Temp:Feuchte:
Aussen-T/F 251 31-05-2017 02:04:17 17 C 20 %
252 31-05-2017 02:16:17 16.3 C 20 %
253 31-05-2017 02:28:17 15.5 C 20 %
254 31-05-2017 02:40:17 15.1 C 20 %
255 31-05-2017 02:52:17 15 C 20 %
256 31-05-2017 03:04:17 14.7 C 20 %
257 31-05-2017 03:16:17 14.4 C 20 %
258 31-05-2017 03:28:17 14 C 20 %
259 31-05-2017 03:40:17 13.6 C 20 %
260 31-05-2017 03:52:17 13.4 C 20 %
261 31-05-2017 04:04:18 13.1 C 20 %
262 31-05-2017 04:16:17 12.8 C 20 %
263 31-05-2017 04:28:17 12.7 C 20 %
264 31-05-2017 04:40:17 12.4 C 21 %
265 31-05-2017 04:52:17 12.4 C 24 %
266 31-05-2017 05:04:17 12.4 C 24 %
267 31-05-2017 05:16:18 12.2 C 25 %
268 31-05-2017 05:28:18 12.1 C 25 %
269 31-05-2017 05:40:17 12 C 26 %
270 31-05-2017 05:52:17 12 C 26 %
271 31-05-2017 06:04:17 11.9 C 28 %
272 31-05-2017 06:16:17 11.9 C 28 %
273 31-05-2017 06:28:17 12.2 C 28 %
274 31-05-2017 06:40:17 12.5 C 30 %
275 31-05-2017 06:52:17 12.5 C 30 %
Sensor: Nr:Datum:Temp:Feuchte:
Aussen-T/F 276 31-05-2017 07:04:17 12.5 C 30 %
277 31-05-2017 07:16:17 13.2 C 25 %
278 31-05-2017 07:28:17 13 C 25 %
279 31-05-2017 07:40:17 13.4 C 26 %
280 31-05-2017 07:52:17 13.5 C 26 %
281 31-05-2017 08:04:17 13.8 C 27 %
282 31-05-2017 08:16:17 14 C 26 %
283 31-05-2017 08:28:17 14.7 C 24 %
284 31-05-2017 08:40:17 15.3 C 20 %
285 31-05-2017 08:52:17 15.7 C 20 %
286 31-05-2017 09:04:17 16.3 C 20 %
287 31-05-2017 09:16:17 17.2 C 20 %
288 31-05-2017 09:28:17 18.3 C 20 %
289 31-05-2017 09:40:17 19.7 C 20 %
290 31-05-2017 09:52:17 20.1 C 20 %
291 31-05-2017 10:04:17 20.3 C 20 %
292 31-05-2017 10:16:17 20.2 C 20 %
293 31-05-2017 10:28:17 20.7 C 20 %
294 31-05-2017 10:40:17 21.6 C 20 %
295 31-05-2017 10:52:17 21.5 C 20 %
296 31-05-2017 11:04:17 22.8 C 20 %
297 31-05-2017 11:16:17 23.2 C 20 %
298 31-05-2017 11:28:17 22.8 C 20 %
299 31-05-2017 11:40:17 22.9 C 20 %
300 31-05-2017 11:52:17 24 C 20 %
Sensor: Nr:Datum:Temp:Feuchte:
Aussen-T/F 301 31-05-2017 12:04:17 23.7 C 20 %
302 31-05-2017 12:16:17 23.9 C 20 %
303 31-05-2017 12:28:17 23.2 C 20 %
304 31-05-2017 12:40:17 23 C 20 %
305 31-05-2017 12:52:17 23.8 C 20 %
306 31-05-2017 13:04:17 24.4 C 20 %
307 31-05-2017 13:16:17 24.1 C 20 %
308 31-05-2017 13:28:17 24.2 C 20 %
309 31-05-2017 13:40:17 23.8 C 20 %
310 31-05-2017 13:52:17 24.3 C 20 %
311 31-05-2017 14:04:17 24.4 C 20 %
312 31-05-2017 14:16:17 26.5 C 20 %
313 31-05-2017 14:28:17 25.9 C 20 %
314 31-05-2017 14:40:17 29.8 C 20 %
315 31-05-2017 14:52:17 28.4 C 20 %
316 31-05-2017 15:04:17 29.7 C 20 %
317 31-05-2017 15:17:17 29.3 C 20 %
318 31-05-2017 15:29:17 28.4 C 20 %
319 31-05-2017 15:40:17 28.2 C 20 %
320 31-05-2017 15:52:17 28.3 C 20 %
321 31-05-2017 16:04:17 27.2 C 20 %
322 31-05-2017 16:16:17 28.3 C 20 %
323 31-05-2017 16:28:17 29 C 20 %
324 31-05-2017 16:40:18 30.1 C 20 %
325 31-05-2017 16:52:17 30.2 C 20 %
Sensor: Nr:Datum:Temp:Feuchte:
Aussen-T/F 326 31-05-2017 17:04:17 27.5 C 20 %
327 31-05-2017 17:16:17 26.9 C 20 %
328 31-05-2017 17:28:17 27.8 C 20 %
329 31-05-2017 17:40:17 31 C 20 %
330 31-05-2017 17:52:17 30.5 C 20 %
331 31-05-2017 18:04:17 37.5 C 20 %
332 31-05-2017 18:16:17 32 C 20 %
333 31-05-2017 18:28:17 28.3 C 20 %
334 31-05-2017 18:40:17 27.1 C 20 %
335 31-05-2017 18:52:17 26.3 C 20 %
336 31-05-2017 19:04:18 28.3 C 20 %
337 31-05-2017 19:16:17 26.3 C 20 %
338 31-05-2017 19:28:17 26.3 C 20 %
339 31-05-2017 19:40:17 26.3 C 20 %
340 31-05-2017 19:53:17 25.1 C 20 %
341 31-05-2017 20:04:17 24.2 C 20 %
342 31-05-2017 20:16:17 23.4 C 20 %
343 31-05-2017 20:28:17 23.4 C 20 %
344 31-05-2017 20:41:17 23.4 C 20 %
345 31-05-2017 20:53:17 21.3 C 20 %
346 31-05-2017 21:04:17 19.8 C 20 %
347 31-05-2017 21:16:17 19.1 C 20 %
348 31-05-2017 21:28:17 18.5 C 20 %
349 31-05-2017 21:40:17 18.1 C 20 %
350 31-05-2017 21:52:17 17.5 C 20 %
Sensor: Nr:Datum:Temp:Feuchte:
Aussen-T/F 351 31-05-2017 22:05:17 17.2 C 20 %
352 31-05-2017 22:16:17 17 C 20 %
353 31-05-2017 22:28:17 16.9 C 20 %
354 31-05-2017 22:40:18 16.6 C 20 %
355 31-05-2017 22:53:17 16 C 20 %
356 31-05-2017 23:05:17 15.6 C 20 %
357 31-05-2017 23:17:17 15.4 C 20 %
358 31-05-2017 23:29:17 14.8 C 20 %
359 31-05-2017 23:41:17 14.8 C 20 %
360 31-05-2017 23:53:17 14.5 C 20 %
361 01-06-2017 00:04:17 14.4 C 20 %
362 01-06-2017 00:17:17 14.5 C 20 %
363 01-06-2017 00:29:17 14.3 C 20 %
364 01-06-2017 00:40:17 14 C 20 %
365 01-06-2017 00:53:17 13.8 C 20 %
366 01-06-2017 01:05:17 13.6 C 20 %
367 01-06-2017 01:17:17 13.4 C 23 %
368 01-06-2017 01:29:17 13.4 C 23 %
369 01-06-2017 01:41:18 13.1 C 25 %
370 01-06-2017 01:53:17 13 C 26 %
371 01-06-2017 02:05:17 13 C 26 %
372 01-06-2017 02:17:17 12.9 C 28 %
373 01-06-2017 02:29:17 12.8 C 28 %
374 01-06-2017 02:41:17 12.7 C 28 %
375 01-06-2017 02:53:17 12.6 C 29 %
Sensor: Nr:Datum:Temp:Feuchte:
Aussen-T/F 376 01-06-2017 03:05:17 12.5 C 30 %
377 01-06-2017 03:17:17 12.5 C 30 %
378 01-06-2017 03:29:17 12.4 C 30 %
379 01-06-2017 03:41:17 12.1 C 30 %
380 01-06-2017 03:53:17 12 C 31 %
381 01-06-2017 04:05:17 11.9 C 32 %
382 01-06-2017 04:17:18 12 C 31 %
383 01-06-2017 04:29:18 12 C 32 %
384 01-06-2017 04:41:17 11.8 C 33 %
385 01-06-2017 04:53:17 11.7 C 33 %
386 01-06-2017 05:05:17 11.6 C 34 %
387 01-06-2017 05:17:17 11.6 C 35 %
388 01-06-2017 05:29:17 11.5 C 34 %
389 01-06-2017 05:41:17 11.6 C 35 %
390 01-06-2017 05:53:17 11.7 C 36 %
391 01-06-2017 06:05:17 11.6 C 35 %
392 01-06-2017 06:17:17 11.6 C 35 %
393 01-06-2017 06:29:17 11.6 C 35 %
394 01-06-2017 06:41:17 11.9 C 36 %
395 01-06-2017 06:53:17 11.9 C 36 %
396 01-06-2017 07:05:17 12.6 C 35 %
397 01-06-2017 07:17:17 12.8 C 35 %
398 01-06-2017 07:29:17 12.8 C 35 %
399 01-06-2017 07:41:17 13.1 C 33 %
400 01-06-2017 07:53:17 13.1 C 33 %
Sensor: Nr:Datum:Temp:Feuchte:
Aussen-T/F 401 01-06-2017 08:05:17 13.1 C 33 %
402 01-06-2017 08:17:17 14 C 30 %
403 01-06-2017 08:29:17 14.2 C 29 %
404 01-06-2017 08:41:17 14.8 C 27 %
405 01-06-2017 08:53:17 15.8 C 25 %
406 01-06-2017 09:05:17 15.9 C 24 %
407 01-06-2017 09:17:17 17.5 C 20 %
408 01-06-2017 09:29:17 18.6 C 20 %
409 01-06-2017 09:41:17 18.9 C 20 %
410 01-06-2017 09:53:17 20.2 C 20 %
411 01-06-2017 10:05:17 20.2 C 20 %
412 01-06-2017 10:17:18 20.2 C 20 %
413 01-06-2017 10:29:18 22.6 C 20 %
414 01-06-2017 10:41:17 22.6 C 20 %
415 01-06-2017 10:53:17 22.6 C 20 %
416 01-06-2017 11:05:17 22.9 C 20 %
417 01-06-2017 11:17:17 22.9 C 20 %
418 01-06-2017 11:29:17 23.1 C 20 %
419 01-06-2017 11:41:17 23.4 C 20 %
420 01-06-2017 11:53:17 23.5 C 20 %
421 01-06-2017 12:05:17 23.2 C 20 %
422 01-06-2017 12:17:17 23.3 C 20 %
423 01-06-2017 12:29:17 23.5 C 20 %
424 01-06-2017 12:41:17 23.4 C 20 %
425 01-06-2017 12:53:17 24 C 20 %
Sensor: Nr:Datum:Temp:Feuchte:
Aussen-T/F 426 01-06-2017 13:05:17 23.7 C 20 %
427 01-06-2017 13:17:17 23.9 C 20 %
428 01-06-2017 13:29:17 24.1 C 20 %
429 01-06-2017 13:41:17 24.5 C 20 %
430 01-06-2017 13:53:17 24.5 C 20 %
431 01-06-2017 14:05:17 23.8 C 20 %
432 01-06-2017 14:17:18 25.7 C 20 %
433 01-06-2017 14:29:18 28 C 20 %
434 01-06-2017 14:41:18 29.8 C 20 %
435 01-06-2017 14:53:17 33.8 C 20 %
436 01-06-2017 15:05:17 34.8 C 20 %
437 01-06-2017 15:17:17 35.1 C 20 %
438 01-06-2017 15:29:17 32.6 C 20 %
439 01-06-2017 15:41:18 31.4 C 20 %
440 01-06-2017 15:53:17 30.5 C 20 %
441 01-06-2017 16:05:17 30.8 C 20 %
442 01-06-2017 16:17:17 30.2 C 20 %
443 01-06-2017 16:29:17 30.5 C 20 %
444 01-06-2017 16:41:17 32.2 C 20 %
445 01-06-2017 16:53:16 35.8 C 20 %
446 01-06-2017 17:05:17 34.8 C 20 %
447 01-06-2017 17:17:17 34.2 C 20 %
448 01-06-2017 17:29:17 32.6 C 20 %
449 01-06-2017 17:41:17 36.5 C 20 %
450 01-06-2017 17:53:17 32.4 C 20 %
Sensor: Nr:Datum:Temp:Feuchte:
Aussen-T/F 451 01-06-2017 18:05:17 30.3 C 20 %
452 01-06-2017 18:17:17 31.7 C 20 %
453 01-06-2017 18:29:17 30.6 C 20 %
454 01-06-2017 18:41:17 28.5 C 20 %
455 01-06-2017 18:53:17 27.7 C 20 %
456 01-06-2017 19:05:17 27.7 C 20 %
457 01-06-2017 19:17:17 26.4 C 20 %
458 01-06-2017 19:29:17 24.6 C 20 %
459 01-06-2017 19:41:17 23.9 C 20 %
460 01-06-2017 19:53:17 23.4 C 20 %
461 01-06-2017 20:05:17 23 C 20 %
462 01-06-2017 20:17:17 22.7 C 20 %
463 01-06-2017 20:29:17 22.4 C 20 %
464 01-06-2017 20:41:17 22.2 C 20 %
465 01-06-2017 20:53:17 22.1 C 20 %
466 01-06-2017 21:05:17 21.8 C 20 %
467 01-06-2017 21:17:17 20.9 C 20 %
468 01-06-2017 21:29:17 20.2 C 20 %
469 01-06-2017 21:41:18 19.7 C 20 %
470 01-06-2017 21:53:17 19.3 C 20 %
471 01-06-2017 22:05:17 19.2 C 20 %
472 01-06-2017 22:17:17 18.8 C 20 %
473 01-06-2017 22:29:17 18.6 C 20 %
474 01-06-2017 22:41:17 18.1 C 20 %
475 01-06-2017 22:53:17 17.8 C 20 %
Sensor: Nr:Datum:Temp:Feuchte:
Aussen-T/F 476 01-06-2017 23:05:17 17.5 C 20 %
477 01-06-2017 23:17:17 17.1 C 20 %
478 01-06-2017 23:29:17 16.8 C 20 %
479 01-06-2017 23:41:17 16.5 C 20 %
480 01-06-2017 23:53:17 16.3 C 20 %
481 02-06-2017 00:05:17 16.1 C 20 %
482 02-06-2017 00:17:17 16 C 20 %
483 02-06-2017 00:29:17 15.7 C 20 %
484 02-06-2017 00:41:17 15.5 C 20 %
485 02-06-2017 00:53:17 15.4 C 20 %
486 02-06-2017 01:05:17 15.2 C 20 %
487 02-06-2017 01:17:17 15.1 C 20 %
488 02-06-2017 01:29:17 14.9 C 20 %
489 02-06-2017 01:41:17 14.9 C 21 %
490 02-06-2017 01:53:17 14.6 C 22 %
491 02-06-2017 02:05:17 14.5 C 23 %
492 02-06-2017 02:17:17 14.4 C 25 %
493 02-06-2017 02:29:17 14.2 C 25 %
494 02-06-2017 02:41:17 14.2 C 25 %
495 02-06-2017 02:53:17 14 C 25 %
496 02-06-2017 03:05:18 14 C 26 %
497 02-06-2017 03:17:16 13.8 C 27 %
498 02-06-2017 03:29:17 13.7 C 27 %
499 02-06-2017 03:41:17 13.6 C 28 %
500 02-06-2017 03:53:17 13.7 C 29 %
Sensor: Nr:Datum:Temp:Feuchte:
Aussen-T/F 501 02-06-2017 04:05:17 13.5 C 29 %
502 02-06-2017 04:17:17 13.5 C 29 %
503 02-06-2017 04:29:17 13.8 C 30 %
504 02-06-2017 04:41:17 14.2 C 30 %
505 02-06-2017 04:53:17 14.7 C 30 %
506 02-06-2017 05:05:17 15.1 C 28 %
507 02-06-2017 05:17:17 15.3 C 25 %
508 02-06-2017 05:29:17 15.3 C 25 %
509 02-06-2017 05:41:17 15.3 C 25 %
510 02-06-2017 05:53:17 15.3 C 25 %
511 02-06-2017 06:05:17 15.5 C 25 %
512 02-06-2017 06:17:17 15.2 C 24 %
513 02-06-2017 06:29:17 14.8 C 25 %
514 02-06-2017 06:41:17 14.5 C 26 %
515 02-06-2017 06:53:17 14.6 C 27 %
516 02-06-2017 07:05:17 14.7 C 28 %
517 02-06-2017 07:17:17 14.7 C 28 %
518 02-06-2017 07:29:17 15.3 C 28 %
519 02-06-2017 07:41:17 16 C 28 %
520 02-06-2017 07:53:17 16.7 C 26 %
521 02-06-2017 08:05:17 17.2 C 22 %
522 02-06-2017 08:17:17 17.5 C 20 %
523 02-06-2017 08:29:17 19 C 20 %
524 02-06-2017 08:41:17 20.3 C 20 %
525 02-06-2017 08:53:17 20.4 C 20 %
Sensor: Nr:Datum:Temp:Feuchte:
Aussen-T/F 526 02-06-2017 09:05:17 20.6 C 20 %
527 02-06-2017 09:17:17 20.9 C 20 %
528 02-06-2017 09:29:17 21.7 C 20 %
529 02-06-2017 09:41:17 22.5 C 20 %
530 02-06-2017 09:53:17 22.7 C 20 %
531 02-06-2017 10:05:17 22.8 C 20 %
532 02-06-2017 10:17:17 23.5 C 20 %
533 02-06-2017 10:29:17 24.1 C 20 %
534 02-06-2017 10:41:17 24.8 C 20 %
535 02-06-2017 10:53:16 25.4 C 20 %
536 02-06-2017 11:05:18 25.8 C 20 %
537 02-06-2017 11:17:17 26 C 20 %
538 02-06-2017 11:29:17 26 C 20 %
539 02-06-2017 11:41:17 26 C 20 %
540 02-06-2017 11:53:17 25.4 C 20 %
541 02-06-2017 12:05:17 25.2 C 20 %
542 02-06-2017 12:17:17 25.2 C 20 %
543 02-06-2017 12:29:17 25.3 C 20 %
544 02-06-2017 12:41:17 25.5 C 20 %
545 02-06-2017 12:53:17 26.7 C 20 %
546 02-06-2017 13:05:17 28.9 C 20 %
547 02-06-2017 13:17:17 29.3 C 20 %
548 02-06-2017 13:29:17 29.4 C 20 %
549 02-06-2017 13:41:17 29.3 C 20 %
550 02-06-2017 13:53:17 29 C 20 %
Sensor: Nr:Datum:Temp:Feuchte:
Aussen-T/F 551 02-06-2017 14:05:17 26.8 C 20 %
552 02-06-2017 14:17:17 25.1 C 20 %
553 02-06-2017 14:29:17 24.4 C 20 %
554 02-06-2017 14:41:17 23 C 20 %
555 02-06-2017 14:53:17 20.3 C 21 %
556 02-06-2017 15:05:17 20.1 C 30 %
557 02-06-2017 15:17:17 20.3 C 32 %
558 02-06-2017 15:29:17 21.6 C 32 %
559 02-06-2017 15:41:17 22.2 C 29 %
560 02-06-2017 15:53:17 22.2 C 27 %
561 02-06-2017 16:05:17 22.4 C 27 %
562 02-06-2017 16:17:17 22.1 C 27 %
563 02-06-2017 16:29:17 21.6 C 29 %
564 02-06-2017 16:41:17 21.4 C 30 %
565 02-06-2017 16:53:17 21.3 C 30 %
566 02-06-2017 17:05:17 21.2 C 28 %
567 02-06-2017 17:17:17 21.5 C 28 %
568 02-06-2017 17:29:17 21.9 C 27 %
569 02-06-2017 17:41:17 21.6 C 26 %
570 02-06-2017 17:53:17 21.7 C 26 %
571 02-06-2017 18:05:17 21.9 C 25 %
572 02-06-2017 18:17:17 22 C 21 %
573 02-06-2017 18:29:17 20.9 C 24 %
574 02-06-2017 18:41:17 20.1 C 24 %
575 02-06-2017 18:53:17 19.4 C 26 %
Sensor: Nr:Datum:Temp:Feuchte:
Aussen-T/F 576 02-06-2017 19:05:17 19.3 C 28 %
577 02-06-2017 19:17:17 19.5 C 30 %
578 02-06-2017 19:29:17 19.9 C 30 %
579 02-06-2017 19:41:17 20.9 C 28 %
580 02-06-2017 19:53:17 21.6 C 24 %
581 02-06-2017 20:05:17 20.8 C 25 %
582 02-06-2017 20:17:18 20.2 C 26 %
583 02-06-2017 20:29:18 19.8 C 29 %
584 02-06-2017 20:41:17 19.5 C 30 %
585 02-06-2017 20:53:17 19.2 C 31 %
586 02-06-2017 21:05:18 19.1 C 32 %
587 02-06-2017 21:17:17 19.1 C 33 %
588 02-06-2017 21:29:17 19.1 C 33 %
589 02-06-2017 21:41:17 19.1 C 33 %
590 02-06-2017 21:53:17 19.1 C 33 %
591 02-06-2017 22:05:17 19.1 C 33 %
592 02-06-2017 22:17:17 19.1 C 33 %
593 02-06-2017 22:29:17 19.1 C 33 %
594 02-06-2017 22:41:17 17.2 C 37 %
595 02-06-2017 22:53:17 17.2 C 37 %
596 02-06-2017 23:05:17 17.2 C 37 %
597 02-06-2017 23:17:17 17.2 C 38 %
598 02-06-2017 23:29:17 17 C 37 %
599 02-06-2017 23:41:17 16.8 C 38 %
600 02-06-2017 23:53:17 16.7 C 38 %
Sensor: Nr:Datum:Temp:Feuchte:
Aussen-T/F 601 03-06-2017 00:05:17 16.6 C 39 %
602 03-06-2017 00:17:17 16.5 C 39 %
603 03-06-2017 00:29:17 16.3 C 39 %
604 03-06-2017 00:41:17 16.2 C 39 %
605 03-06-2017 00:53:17 16.2 C 40 %
606 03-06-2017 01:05:17 16.2 C 40 %
607 03-06-2017 01:17:17 16 C 40 %
608 03-06-2017 01:29:17 15.8 C 40 %
609 03-06-2017 01:41:17 15.7 C 40 %
610 03-06-2017 01:53:17 15.7 C 41 %
611 03-06-2017 02:05:17 15.8 C 41 %
612 03-06-2017 02:17:17 15.6 C 41 %
613 03-06-2017 02:29:17 15.5 C 41 %
614 03-06-2017 02:41:17 15.3 C 41 %
615 03-06-2017 02:53:17 15.2 C 41 %
616 03-06-2017 03:05:17 15.3 C 43 %
617 03-06-2017 03:17:17 15.8 C 46 %
618 03-06-2017 03:29:17 16.4 C 48 %
619 03-06-2017 03:41:17 16.3 C 47 %
620 03-06-2017 03:53:17 16.2 C 46 %
621 03-06-2017 04:05:17 16 C 44 %
622 03-06-2017 04:17:17 15.6 C 43 %
623 03-06-2017 04:29:17 15.5 C 44 %
624 03-06-2017 04:41:17 15.5 C 44 %
625 03-06-2017 04:53:17 15.8 C 50 %
Sensor: Nr:Datum:Temp:Feuchte:
Aussen-T/F 626 03-06-2017 05:05:17 16 C 51 %
627 03-06-2017 05:17:17 16.3 C 52 %
628 03-06-2017 05:29:17 16.2 C 52 %
629 03-06-2017 05:41:17 16 C 51 %
630 03-06-2017 05:53:17 16.2 C 51 %
631 03-06-2017 06:05:17 16.2 C 52 %
632 03-06-2017 06:17:17 16.2 C 52 %
633 03-06-2017 06:29:17 16.3 C 52 %
634 03-06-2017 06:41:17 16.7 C 53 %
635 03-06-2017 06:53:17 17.1 C 54 %
636 03-06-2017 07:05:17 17.4 C 55 %
637 03-06-2017 07:17:17 17.9 C 56 %
638 03-06-2017 07:29:17 18.1 C 50 %
639 03-06-2017 07:41:17 18.2 C 43 %
640 03-06-2017 07:53:17 18.5 C 43 %
641 03-06-2017 08:05:17 18.6 C 43 %
642 03-06-2017 08:17:17 18.7 C 40 %
643 03-06-2017 08:29:17 18.7 C 40 %
644 03-06-2017 08:41:17 18.7 C 40 %
645 03-06-2017 08:53:17 19 C 36 %
646 03-06-2017 09:05:17 19 C 36 %
647 03-06-2017 09:17:17 19.2 C 33 %
648 03-06-2017 09:29:17 19.2 C 33 %
649 03-06-2017 09:41:17 19.6 C 32 %
650 03-06-2017 09:53:17 20.4 C 28 %
Sensor: Nr:Datum:Temp:Feuchte:
Aussen-T/F 651 03-06-2017 10:05:17 20 C 25 %
652 03-06-2017 10:17:17 19.7 C 25 %
653 03-06-2017 10:29:17 19.7 C 26 %
654 03-06-2017 10:41:17 20.4 C 26 %
655 03-06-2017 10:53:17 20.8 C 26 %
656 03-06-2017 11:05:17 21 C 25 %
657 03-06-2017 11:17:17 22.2 C 25 %
658 03-06-2017 11:29:17 22.5 C 22 %
659 03-06-2017 11:41:17 22.4 C 20 %
660 03-06-2017 11:53:17 22.7 C 20 %
661 03-06-2017 12:05:17 23.3 C 20 %
662 03-06-2017 12:17:17 23.8 C 20 %
663 03-06-2017 12:29:17 24.3 C 20 %
664 03-06-2017 12:41:18 24.8 C 20 %
665 03-06-2017 12:53:17 24.8 C 20 %
666 03-06-2017 13:05:17 26.2 C 20 %
667 03-06-2017 13:17:17 25.1 C 20 %
668 03-06-2017 13:29:17 18.6 C 20 %
669 03-06-2017 13:41:17 18.6 C 30 %
670 03-06-2017 13:53:17 19.2 C 31 %
671 03-06-2017 14:05:17 20.3 C 35 %
672 03-06-2017 14:17:17 19.6 C 32 %
673 03-06-2017 14:29:17 19.1 C 34 %
674 03-06-2017 14:41:17 19.9 C 38 %
675 03-06-2017 14:53:17 23.3 C 36 %
Sensor: Nr:Datum:Temp:Feuchte:
Aussen-T/F 676 03-06-2017 15:05:17 27.1 C 23 %
677 03-06-2017 15:17:17 27.7 C 20 %
678 03-06-2017 15:29:17 25.1 C 20 %
679 03-06-2017 15:41:17 24.3 C 20 %
680 03-06-2017 15:53:17 24.8 C 22 %
681 03-06-2017 16:05:17 24.7 C 22 %
682 03-06-2017 16:17:17 22.8 C 23 %
683 03-06-2017 16:29:17 22.2 C 27 %
684 03-06-2017 16:41:17 22 C 30 %
685 03-06-2017 16:53:17 22.8 C 31 %
686 03-06-2017 17:05:17 23.1 C 29 %
687 03-06-2017 17:17:17 23 C 29 %
688 03-06-2017 17:29:17 23 C 29 %
689 03-06-2017 17:41:17 23 C 29 %
690 03-06-2017 17:53:17 23 C 29 %
691 03-06-2017 18:05:17 23 C 29 %
692 03-06-2017 18:17:17 23.2 C 26 %
693 03-06-2017 18:29:17 23.8 C 26 %
694 03-06-2017 18:41:17 23.1 C 25 %
695 03-06-2017 18:53:17 22.5 C 26 %
696 03-06-2017 19:05:17 21.8 C 28 %
697 03-06-2017 19:17:17 21.4 C 30 %
698 03-06-2017 19:29:17 21.3 C 30 %
699 03-06-2017 19:41:17 21 C 33 %
700 03-06-2017 19:53:17 21 C 33 %
Sensor: Nr:Datum:Temp:Feuchte:
Aussen-T/F 701 03-06-2017 20:05:17 21 C 33 %
702 03-06-2017 20:17:17 21 C 33 %
703 03-06-2017 20:29:17 21 C 33 %
704 03-06-2017 20:41:17 21 C 33 %
705 03-06-2017 20:53:17 21 C 33 %
706 03-06-2017 21:05:17 21 C 33 %
707 03-06-2017 21:17:17 21 C 33 %
708 03-06-2017 21:29:17 18.4 C 38 %
709 03-06-2017 21:41:17 18 C 39 %
710 03-06-2017 21:53:17 17.6 C 40 %
711 03-06-2017 22:05:17 17.4 C 41 %
712 03-06-2017 22:17:17 17.3 C 42 %
713 03-06-2017 22:29:17 17.2 C 44 %
714 03-06-2017 22:41:17 17.1 C 45 %
715 03-06-2017 22:53:17 17 C 47 %
716 03-06-2017 23:05:17 17 C 48 %
717 03-06-2017 23:17:17 16.9 C 52 %
718 03-06-2017 23:29:17 16.8 C 52 %
719 03-06-2017 23:41:17 16.8 C 54 %
720 03-06-2017 23:53:17 16.8 C 57 %
721 04-06-2017 00:05:17 16.7 C 58 %
722 04-06-2017 00:17:17 16.8 C 59 %
723 04-06-2017 00:29:17 16.9 C 60 %
724 04-06-2017 00:41:17 16.6 C 60 %
725 04-06-2017 00:53:17 16.2 C 57 %
Sensor: Nr:Datum:Temp:Feuchte:
Aussen-T/F 726 04-06-2017 01:05:17 16.2 C 57 %
727 04-06-2017 01:17:17 16.3 C 58 %
728 04-06-2017 01:29:17 16 C 58 %
729 04-06-2017 01:41:17 16 C 59 %
730 04-06-2017 01:53:17 16 C 59 %
731 04-06-2017 02:05:17 16 C 59 %
732 04-06-2017 02:17:17 15.4 C 57 %
733 04-06-2017 02:29:17 15.2 C 56 %
734 04-06-2017 02:41:17 15.1 C 56 %
735 04-06-2017 02:53:17 14.9 C 57 %
736 04-06-2017 03:05:17 14.4 C 53 %
737 04-06-2017 03:17:17 14.2 C 52 %
738 04-06-2017 03:29:17 14.2 C 53 %
739 04-06-2017 03:41:17 14.2 C 53 %
740 04-06-2017 03:53:17 14.2 C 54 %
741 04-06-2017 04:05:17 14.1 C 54 %
742 04-06-2017 04:17:18 14.1 C 55 %
743 04-06-2017 04:29:18 14.2 C 56 %
744 04-06-2017 04:41:17 14.1 C 56 %
745 04-06-2017 04:53:17 14 C 55 %
746 04-06-2017 05:05:17 14 C 55 %
747 04-06-2017 05:17:17 13.9 C 57 %
748 04-06-2017 05:29:17 14 C 56 %
749 04-06-2017 05:41:17 13.8 C 57 %
750 04-06-2017 05:53:17 13.8 C 57 %
Sensor: Nr:Datum:Temp:Feuchte:
Aussen-T/F 751 04-06-2017 06:05:17 13.6 C 56 %
752 04-06-2017 06:17:17 13.6 C 58 %
753 04-06-2017 06:29:17 13.7 C 59 %
754 04-06-2017 06:41:17 13.8 C 60 %
755 04-06-2017 06:53:16 13.9 C 60 %
756 04-06-2017 07:05:17 14.1 C 60 %
757 04-06-2017 07:17:17 14.3 C 60 %
758 04-06-2017 07:29:17 14.2 C 59 %
759 04-06-2017 07:41:17 14.3 C 58 %
760 04-06-2017 07:53:17 14.4 C 57 %
761 04-06-2017 08:05:17 14.8 C 57 %
762 04-06-2017 08:17:17 14.5 C 52 %
763 04-06-2017 08:29:17 14.5 C 48 %
764 04-06-2017 08:41:17 14.6 C 48 %
765 04-06-2017 08:53:17 15.1 C 50 %
766 04-06-2017 09:05:17 15.3 C 44 %
767 04-06-2017 09:17:17 15.3 C 44 %
768 04-06-2017 09:29:17 15.4 C 40 %
769 04-06-2017 09:41:17 15.3 C 36 %
770 04-06-2017 09:53:17 15.3 C 36 %
771 04-06-2017 10:05:17 15.3 C 36 %
772 04-06-2017 10:17:17 15.3 C 36 %
773 04-06-2017 10:29:17 17 C 25 %
774 04-06-2017 10:41:17 18.1 C 20 %
775 04-06-2017 10:53:17 18 C 20 %
Sensor: Nr:Datum:Temp:Feuchte:
Aussen-T/F 776 04-06-2017 11:05:17 18.3 C 20 %
777 04-06-2017 11:17:17 18.6 C 20 %
778 04-06-2017 11:29:17 19.5 C 20 %
779 04-06-2017 11:41:18 19.3 C 20 %
780 04-06-2017 11:53:17 19.5 C 20 %
781 04-06-2017 12:05:17 20 C 20 %
782 04-06-2017 12:17:16 20 C 20 %
783 04-06-2017 12:29:16 18.8 C 20 %
784 04-06-2017 12:41:17 17.9 C 20 %
785 04-06-2017 12:53:17 18 C 20 %
786 04-06-2017 13:05:17 18.4 C 20 %
787 04-06-2017 13:17:17 18.9 C 20 %
788 04-06-2017 13:29:17 19.9 C 20 %
789 04-06-2017 13:41:17 20 C 20 %
790 04-06-2017 13:53:17 20.8 C 20 %
791 04-06-2017 14:05:17 20.2 C 20 %
792 04-06-2017 14:17:17 21.5 C 20 %
793 04-06-2017 14:29:17 21.1 C 20 %
794 04-06-2017 14:41:17 21.2 C 20 %
795 04-06-2017 14:53:17 26.2 C 20 %
796 04-06-2017 15:05:17 22.1 C 20 %
797 04-06-2017 15:17:17 21.8 C 20 %
798 04-06-2017 15:29:17 21.7 C 20 %
799 04-06-2017 15:41:17 22.5 C 20 %
800 04-06-2017 15:53:17 23.3 C 20 %
Sensor: Nr:Datum:Temp:Feuchte:
Aussen-T/F 801 04-06-2017 16:05:17 23.7 C 20 %
802 04-06-2017 16:17:17 24.7 C 20 %
803 04-06-2017 16:29:17 25.5 C 20 %
804 04-06-2017 16:41:17 23.8 C 20 %
805 04-06-2017 16:53:17 25.2 C 20 %
806 04-06-2017 17:05:17 26.3 C 20 %
807 04-06-2017 17:17:17 25.5 C 20 %
808 04-06-2017 17:29:17 25.7 C 20 %
809 04-06-2017 17:41:18 25 C 20 %
810 04-06-2017 17:53:17 23.6 C 20 %
811 04-06-2017 18:05:17 21 C 20 %
812 04-06-2017 18:17:17 20 C 20 %
813 04-06-2017 18:29:17 21.6 C 20 %
814 04-06-2017 18:41:17 21.1 C 20 %
815 04-06-2017 18:53:17 20 C 20 %
816 04-06-2017 19:05:18 19 C 20 %
817 04-06-2017 19:17:17 18.5 C 20 %
818 04-06-2017 19:29:17 18.1 C 20 %
819 04-06-2017 19:41:17 17 C 20 %
820 04-06-2017 19:53:17 15.5 C 20 %
821 04-06-2017 20:05:17 14.7 C 25 %
822 04-06-2017 20:17:17 14.3 C 28 %
823 04-06-2017 20:29:17 14.1 C 32 %
824 04-06-2017 20:41:17 13.7 C 34 %
825 04-06-2017 20:53:17 13.8 C 36 %
Sensor: Nr:Datum:Temp:Feuchte:
Aussen-T/F 826 04-06-2017 21:05:17 13.7 C 37 %
827 04-06-2017 21:17:16 13.6 C 38 %
828 04-06-2017 21:29:17 13.7 C 39 %
829 04-06-2017 21:41:17 13.3 C 40 %
830 04-06-2017 21:53:17 13.1 C 40 %
831 04-06-2017 22:05:17 12.7 C 41 %
832 04-06-2017 22:17:17 12.4 C 41 %
833 04-06-2017 22:29:17 12.4 C 42 %
834 04-06-2017 22:41:17 12.4 C 43 %
835 04-06-2017 22:53:17 12.4 C 44 %
836 04-06-2017 23:05:17 12.3 C 43 %
837 04-06-2017 23:17:17 12.2 C 43 %
838 04-06-2017 23:29:17 12 C 44 %
839 04-06-2017 23:41:17 11.9 C 45 %
840 04-06-2017 23:53:17 11.7 C 45 %
Sensor: Nr:Datum:Temp:Feuchte:
G-T/H 1 29-05-2017 00:04:17 19.2 C 67 %
2 29-05-2017 00:16:17 19.1 C 66 %
3 29-05-2017 00:28:17 19.1 C 66 %
4 29-05-2017 00:40:17 19.1 C 66 %
5 29-05-2017 00:52:17 19.1 C 66 %
6 29-05-2017 01:04:17 19.1 C 66 %
7 29-05-2017 01:16:17 19.1 C 66 %
8 29-05-2017 01:28:17 19.1 C 66 %
9 29-05-2017 01:40:17 19.1 C 66 %
10 29-05-2017 01:52:17 19 C 66 %
11 29-05-2017 02:04:17 19 C 66 %
12 29-05-2017 02:16:17 19 C 66 %
13 29-05-2017 02:28:17 19 C 66 %
14 29-05-2017 02:40:17 19 C 66 %
15 29-05-2017 02:52:17 18.9 C 67 %
16 29-05-2017 03:04:17 18.9 C 67 %
17 29-05-2017 03:16:17 18.9 C 67 %
18 29-05-2017 03:28:17 18.9 C 67 %
19 29-05-2017 03:40:17 18.8 C 67 %
20 29-05-2017 03:52:17 18.9 C 67 %
21 29-05-2017 04:04:17 18.9 C 67 %
22 29-05-2017 04:16:17 18.8 C 67 %
23 29-05-2017 04:28:17 18.8 C 67 %
24 29-05-2017 04:40:17 18.8 C 67 %
25 29-05-2017 04:52:17 18.8 C 67 %
Sensor: Nr:Datum:Temp:Feuchte:
G-T/H 26 29-05-2017 05:04:17 18.7 C 67 %
27 29-05-2017 05:16:17 18.7 C 68 %
28 29-05-2017 05:28:17 18.7 C 68 %
29 29-05-2017 05:40:17 18.7 C 68 %
30 29-05-2017 05:52:17 18.6 C 68 %
31 29-05-2017 06:04:17 18.7 C 68 %
32 29-05-2017 06:16:17 18.6 C 68 %
33 29-05-2017 06:28:17 18.6 C 68 %
34 29-05-2017 06:40:17 18.6 C 68 %
35 29-05-2017 06:52:17 18.6 C 68 %
36 29-05-2017 07:04:17 18.6 C 68 %
37 29-05-2017 07:16:17 18.5 C 68 %
38 29-05-2017 07:28:17 18.5 C 68 %
39 29-05-2017 07:40:17 18.5 C 68 %
40 29-05-2017 07:52:17 18.5 C 69 %
41 29-05-2017 08:04:17 18.5 C 71 %
42 29-05-2017 08:16:16 18.5 C 72 %
43 29-05-2017 08:28:16 18.6 C 73 %
44 29-05-2017 08:40:17 18.7 C 73 %
45 29-05-2017 08:52:17 18.8 C 74 %
46 29-05-2017 09:04:17 18.9 C 74 %
47 29-05-2017 09:16:17 19 C 74 %
48 29-05-2017 09:28:17 19.1 C 74 %
49 29-05-2017 09:40:17 19.2 C 75 %
50 29-05-2017 09:52:17 19.5 C 76 %
Sensor: Nr:Datum:Temp:Feuchte:
G-T/H 51 29-05-2017 10:04:17 19.8 C 77 %
52 29-05-2017 10:16:17 20 C 77 %
53 29-05-2017 10:28:17 20.1 C 78 %
54 29-05-2017 10:40:17 20.4 C 79 %
55 29-05-2017 10:52:17 20.7 C 80 %
56 29-05-2017 11:04:18 21.2 C 81 %
57 29-05-2017 11:16:17 21.6 C 82 %
58 29-05-2017 11:28:17 22 C 82 %
59 29-05-2017 11:40:17 22.3 C 81 %
60 29-05-2017 11:52:17 22.7 C 78 %
61 29-05-2017 12:04:17 23 C 72 %
62 29-05-2017 12:16:17 23.3 C 69 %
63 29-05-2017 12:28:17 23.7 C 67 %
64 29-05-2017 12:40:17 24 C 62 %
65 29-05-2017 12:52:17 24.1 C 62 %
66 29-05-2017 13:04:17 24.3 C 58 %
67 29-05-2017 13:16:17 24.7 C 57 %
68 29-05-2017 13:28:17 24.8 C 50 %
69 29-05-2017 13:40:18 25 C 47 %
70 29-05-2017 13:52:17 25.2 C 47 %
71 29-05-2017 14:04:17 25.6 C 47 %
72 29-05-2017 14:16:17 25.7 C 48 %
73 29-05-2017 14:28:17 25.9 C 47 %
74 29-05-2017 14:40:17 26 C 46 %
75 29-05-2017 14:52:17 26.2 C 44 %
Sensor: Nr:Datum:Temp:Feuchte:
G-T/H 76 29-05-2017 15:04:17 26.4 C 46 %
77 29-05-2017 15:16:17 26.6 C 44 %
78 29-05-2017 15:28:17 26.8 C 44 %
79 29-05-2017 15:40:17 27 C 43 %
80 29-05-2017 15:52:17 27 C 40 %
81 29-05-2017 16:04:17 27.2 C 39 %
82 29-05-2017 16:16:17 27.3 C 39 %
83 29-05-2017 16:28:17 27.5 C 41 %
84 29-05-2017 16:40:17 27.7 C 41 %
85 29-05-2017 16:52:17 27.9 C 39 %
86 29-05-2017 17:04:17 28 C 37 %
87 29-05-2017 17:16:17 28 C 36 %
88 29-05-2017 17:28:17 28.2 C 38 %
89 29-05-2017 17:40:17 28.4 C 36 %
90 29-05-2017 17:52:17 28.3 C 37 %
91 29-05-2017 18:04:18 28.4 C 42 %
92 29-05-2017 18:16:17 28.4 C 41 %
93 29-05-2017 18:28:17 28.4 C 43 %
94 29-05-2017 18:40:17 28.4 C 43 %
95 29-05-2017 18:52:17 28.3 C 45 %
96 29-05-2017 19:04:17 28.4 C 45 %
97 29-05-2017 19:16:17 28.4 C 45 %
98 29-05-2017 19:28:17 28.1 C 44 %
99 29-05-2017 19:40:17 27.6 C 45 %
100 29-05-2017 19:52:17 27 C 46 %
Sensor: Nr:Datum:Temp:Feuchte:
G-T/H 101 29-05-2017 20:04:17 26.6 C 48 %
102 29-05-2017 20:16:17 26.2 C 49 %
103 29-05-2017 20:28:17 26 C 49 %
104 29-05-2017 20:40:17 25.6 C 51 %
105 29-05-2017 20:52:17 25.4 C 51 %
106 29-05-2017 21:04:17 25.1 C 52 %
107 29-05-2017 21:16:17 24.8 C 53 %
108 29-05-2017 21:28:17 24.6 C 54 %
109 29-05-2017 21:40:17 24.5 C 54 %
110 29-05-2017 21:52:17 24.3 C 55 %
111 29-05-2017 22:04:17 24.1 C 55 %
112 29-05-2017 22:16:17 23.9 C 56 %
113 29-05-2017 22:28:17 23.7 C 56 %
114 29-05-2017 22:40:17 23.5 C 57 %
115 29-05-2017 22:52:17 23.3 C 58 %
116 29-05-2017 23:04:17 23.3 C 58 %
117 29-05-2017 23:16:17 23.1 C 58 %
118 29-05-2017 23:28:17 22.9 C 59 %
119 29-05-2017 23:40:17 22.7 C 60 %
120 29-05-2017 23:52:17 22.5 C 60 %
121 30-05-2017 00:04:17 22.5 C 60 %
122 30-05-2017 00:16:17 22.3 C 60 %
123 30-05-2017 00:28:17 22.3 C 60 %
124 30-05-2017 00:40:17 22 C 60 %
125 30-05-2017 00:52:17 22 C 61 %
Sensor: Nr:Datum:Temp:Feuchte:
G-T/H 126 30-05-2017 01:04:17 21.7 C 61 %
127 30-05-2017 01:16:17 21.6 C 62 %
128 30-05-2017 01:28:17 21.5 C 62 %
129 30-05-2017 01:40:17 21.3 C 62 %
130 30-05-2017 01:52:17 21.2 C 62 %
131 30-05-2017 02:04:17 21.1 C 62 %
132 30-05-2017 02:16:17 21.1 C 62 %
133 30-05-2017 02:28:17 20.9 C 63 %
134 30-05-2017 02:40:17 20.9 C 63 %
135 30-05-2017 02:52:17 20.8 C 64 %
136 30-05-2017 03:04:17 20.7 C 64 %
137 30-05-2017 03:16:17 20.6 C 64 %
138 30-05-2017 03:28:17 20.6 C 64 %
139 30-05-2017 03:40:17 20.5 C 64 %
140 30-05-2017 03:52:17 20.4 C 65 %
141 30-05-2017 04:04:17 20.4 C 65 %
142 30-05-2017 04:16:17 20.4 C 65 %
143 30-05-2017 04:28:17 20.3 C 65 %
144 30-05-2017 04:40:17 20.3 C 65 %
145 30-05-2017 04:52:17 20.3 C 65 %
146 30-05-2017 05:04:18 20.3 C 65 %
147 30-05-2017 05:16:17 20.2 C 66 %
148 30-05-2017 05:28:17 20.2 C 66 %
149 30-05-2017 05:40:17 20.1 C 66 %
150 30-05-2017 05:52:17 20.1 C 66 %
Sensor: Nr:Datum:Temp:Feuchte:
G-T/H 151 30-05-2017 06:04:17 20.1 C 66 %
152 30-05-2017 06:16:17 20 C 67 %
153 30-05-2017 06:28:17 20 C 67 %
154 30-05-2017 06:40:17 19.8 C 68 %
155 30-05-2017 06:52:17 19.7 C 69 %
156 30-05-2017 07:04:17 19.8 C 69 %
157 30-05-2017 07:16:17 19.9 C 69 %
158 30-05-2017 07:28:17 20 C 68 %
159 30-05-2017 07:40:17 20.1 C 68 %
160 30-05-2017 07:52:17 20.2 C 68 %
161 30-05-2017 08:04:17 20.4 C 68 %
162 30-05-2017 08:16:17 20.5 C 69 %
163 30-05-2017 08:28:17 20.7 C 69 %
164 30-05-2017 08:40:17 20.8 C 69 %
165 30-05-2017 08:52:17 20.9 C 69 %
166 30-05-2017 09:04:17 21 C 68 %
167 30-05-2017 09:16:17 21.2 C 69 %
168 30-05-2017 09:28:17 21.3 C 68 %
169 30-05-2017 09:40:17 21.3 C 68 %
170 30-05-2017 09:52:17 21.4 C 68 %
171 30-05-2017 10:04:17 21.6 C 67 %
172 30-05-2017 10:16:17 21.8 C 66 %
173 30-05-2017 10:28:17 21.9 C 65 %
174 30-05-2017 10:40:17 22.1 C 63 %
175 30-05-2017 10:52:17 22.3 C 62 %
Sensor: Nr:Datum:Temp:Feuchte:
G-T/H 176 30-05-2017 11:04:17 22.5 C 61 %
177 30-05-2017 11:16:17 22.7 C 60 %
178 30-05-2017 11:28:17 22.8 C 58 %
179 30-05-2017 11:40:17 22.9 C 58 %
180 30-05-2017 11:52:17 23.2 C 57 %
181 30-05-2017 12:04:17 23.4 C 57 %
182 30-05-2017 12:16:17 23.6 C 57 %
183 30-05-2017 12:28:17 23.7 C 57 %
184 30-05-2017 12:40:17 23.9 C 57 %
185 30-05-2017 12:52:17 24 C 55 %
186 30-05-2017 13:04:17 24 C 57 %
187 30-05-2017 13:16:17 24.2 C 55 %
188 30-05-2017 13:28:17 24.2 C 54 %
189 30-05-2017 13:40:17 24.3 C 55 %
190 30-05-2017 13:52:17 24.5 C 54 %
191 30-05-2017 14:04:17 24.6 C 51 %
192 30-05-2017 14:16:16 24.4 C 52 %
193 30-05-2017 14:28:17 24.3 C 53 %
194 30-05-2017 14:40:17 24.5 C 53 %
195 30-05-2017 14:52:17 24.4 C 53 %
196 30-05-2017 15:04:17 24.2 C 53 %
197 30-05-2017 15:16:17 24.1 C 54 %
198 30-05-2017 15:28:17 24 C 55 %
199 30-05-2017 15:40:17 23.7 C 58 %
200 30-05-2017 15:52:17 23.5 C 60 %
Sensor: Nr:Datum:Temp:Feuchte:
G-T/H 201 30-05-2017 16:04:17 23.6 C 63 %
202 30-05-2017 16:16:18 23.6 C 63 %
203 30-05-2017 16:28:18 23.6 C 61 %
204 30-05-2017 16:40:17 23.5 C 60 %
205 30-05-2017 16:52:17 23.5 C 58 %
206 30-05-2017 17:04:17 23.5 C 58 %
207 30-05-2017 17:16:17 23.4 C 57 %
208 30-05-2017 17:28:17 23.4 C 57 %
209 30-05-2017 17:40:17 23.3 C 57 %
210 30-05-2017 17:52:17 23.2 C 56 %
211 30-05-2017 18:04:17 23.1 C 56 %
212 30-05-2017 18:16:17 23.2 C 56 %
213 30-05-2017 18:28:17 23.4 C 57 %
214 30-05-2017 18:40:17 23.5 C 57 %
215 30-05-2017 18:52:17 23.7 C 57 %
216 30-05-2017 19:04:17 23.8 C 58 %
217 30-05-2017 19:16:17 23.7 C 58 %
218 30-05-2017 19:28:17 23.9 C 58 %
219 30-05-2017 19:40:17 23.8 C 57 %
220 30-05-2017 19:52:17 23.5 C 58 %
221 30-05-2017 20:04:17 23.3 C 58 %
222 30-05-2017 20:16:17 23.3 C 58 %
223 30-05-2017 20:28:17 23.2 C 59 %
224 30-05-2017 20:40:17 23.1 C 58 %
225 30-05-2017 20:52:17 23 C 58 %
Sensor: Nr:Datum:Temp:Feuchte:
G-T/H 226 30-05-2017 21:04:17 22.8 C 57 %
227 30-05-2017 21:16:17 22.7 C 57 %
228 30-05-2017 21:28:17 22.6 C 56 %
229 30-05-2017 21:40:17 22.5 C 56 %
230 30-05-2017 21:52:17 22.3 C 56 %
231 30-05-2017 22:04:17 22.1 C 55 %
232 30-05-2017 22:16:17 22 C 55 %
233 30-05-2017 22:28:17 21.8 C 55 %
234 30-05-2017 22:40:17 21.7 C 55 %
235 30-05-2017 22:52:17 21.5 C 55 %
236 30-05-2017 23:04:17 21.3 C 55 %
237 30-05-2017 23:16:17 21.2 C 54 %
238 30-05-2017 23:28:17 21.1 C 54 %
239 30-05-2017 23:40:17 20.8 C 55 %
240 30-05-2017 23:52:17 20.7 C 55 %
241 31-05-2017 00:04:17 20.5 C 54 %
242 31-05-2017 00:16:17 20.3 C 54 %
243 31-05-2017 00:28:17 20.2 C 54 %
244 31-05-2017 00:40:17 20.2 C 54 %
245 31-05-2017 00:52:17 20.2 C 53 %
246 31-05-2017 01:04:17 20 C 53 %
247 31-05-2017 01:16:17 19.9 C 54 %
248 31-05-2017 01:28:17 19.8 C 54 %
249 31-05-2017 01:40:17 19.8 C 54 %
250 31-05-2017 01:52:17 19.7 C 54 %
Sensor: Nr:Datum:Temp:Feuchte:
G-T/H 251 31-05-2017 02:04:17 19.7 C 54 %
252 31-05-2017 02:16:17 19.4 C 54 %
253 31-05-2017 02:28:17 19.1 C 55 %
254 31-05-2017 02:40:17 18.9 C 56 %
255 31-05-2017 02:52:17 18.8 C 55 %
256 31-05-2017 03:04:17 18.6 C 55 %
257 31-05-2017 03:16:17 18.3 C 54 %
258 31-05-2017 03:28:17 18.1 C 55 %
259 31-05-2017 03:40:17 17.9 C 56 %
260 31-05-2017 03:52:17 17.7 C 56 %
261 31-05-2017 04:04:18 17.6 C 57 %
262 31-05-2017 04:16:17 17.5 C 57 %
263 31-05-2017 04:28:17 17.2 C 58 %
264 31-05-2017 04:40:17 17.1 C 58 %
265 31-05-2017 04:52:17 17 C 58 %
266 31-05-2017 05:04:17 16.9 C 59 %
267 31-05-2017 05:16:18 16.7 C 59 %
268 31-05-2017 05:28:18 16.7 C 59 %
269 31-05-2017 05:40:17 16.6 C 60 %
270 31-05-2017 05:52:17 16.5 C 60 %
271 31-05-2017 06:04:17 16.4 C 61 %
272 31-05-2017 06:16:17 16.3 C 61 %
273 31-05-2017 06:28:17 16.3 C 61 %
274 31-05-2017 06:40:17 16.3 C 62 %
275 31-05-2017 06:52:17 16.4 C 62 %
Sensor: Nr:Datum:Temp:Feuchte:
G-T/H 276 31-05-2017 07:04:17 16.4 C 62 %
277 31-05-2017 07:16:17 16.4 C 62 %
278 31-05-2017 07:28:17 16.4 C 63 %
279 31-05-2017 07:40:17 16.5 C 63 %
280 31-05-2017 07:52:17 16.6 C 63 %
281 31-05-2017 08:04:17 16.7 C 64 %
282 31-05-2017 08:16:17 16.8 C 64 %
283 31-05-2017 08:28:17 17 C 63 %
284 31-05-2017 08:40:17 17.2 C 63 %
285 31-05-2017 08:52:17 17.4 C 63 %
286 31-05-2017 09:04:17 17.5 C 63 %
287 31-05-2017 09:16:17 17.6 C 62 %
288 31-05-2017 09:28:17 17.8 C 62 %
289 31-05-2017 09:40:17 17.9 C 62 %
290 31-05-2017 09:52:17 18 C 61 %
291 31-05-2017 10:04:17 18.1 C 60 %
292 31-05-2017 10:16:17 18.3 C 60 %
293 31-05-2017 10:28:17 18.4 C 59 %
294 31-05-2017 10:40:17 18.6 C 59 %
295 31-05-2017 10:52:17 18.7 C 59 %
296 31-05-2017 11:04:17 18.8 C 58 %
297 31-05-2017 11:16:17 18.9 C 58 %
298 31-05-2017 11:28:17 19 C 56 %
299 31-05-2017 11:40:17 19 C 56 %
300 31-05-2017 11:52:17 19.2 C 55 %
Sensor: Nr:Datum:Temp:Feuchte:
G-T/H 301 31-05-2017 12:04:17 19.2 C 55 %
302 31-05-2017 12:16:17 19.3 C 55 %
303 31-05-2017 12:28:17 19.5 C 55 %
304 31-05-2017 12:40:17 19.5 C 54 %
305 31-05-2017 12:52:17 19.7 C 54 %
306 31-05-2017 13:04:17 19.9 C 54 %
307 31-05-2017 13:16:17 19.9 C 53 %
308 31-05-2017 13:28:17 20.1 C 52 %
309 31-05-2017 13:40:17 20 C 52 %
310 31-05-2017 13:52:17 20.1 C 51 %
311 31-05-2017 14:04:17 20.3 C 51 %
312 31-05-2017 14:16:17 20.5 C 50 %
313 31-05-2017 14:28:17 20.5 C 49 %
314 31-05-2017 14:40:17 20.7 C 49 %
315 31-05-2017 14:52:17 20.8 C 49 %
316 31-05-2017 15:04:17 20.7 C 49 %
317 31-05-2017 15:17:17 20.9 C 49 %
318 31-05-2017 15:29:17 21 C 48 %
319 31-05-2017 15:40:17 21.1 C 48 %
320 31-05-2017 15:52:17 21.2 C 47 %
321 31-05-2017 16:04:17 21.1 C 47 %
322 31-05-2017 16:16:17 21.3 C 46 %
323 31-05-2017 16:28:17 21.5 C 46 %
324 31-05-2017 16:40:18 21.6 C 45 %
325 31-05-2017 16:52:17 21.5 C 45 %
Sensor: Nr:Datum:Temp:Feuchte:
G-T/H 326 31-05-2017 17:04:17 21.5 C 44 %
327 31-05-2017 17:16:17 21.6 C 44 %
328 31-05-2017 17:28:17 21.4 C 44 %
329 31-05-2017 17:40:17 20.9 C 46 %
330 31-05-2017 17:52:17 20.8 C 47 %
331 31-05-2017 18:04:17 20.7 C 48 %
332 31-05-2017 18:16:17 20.6 C 48 %
333 31-05-2017 18:28:17 20.5 C 49 %
334 31-05-2017 18:40:17 20.4 C 50 %
335 31-05-2017 18:52:17 20.4 C 50 %
336 31-05-2017 19:04:18 20.4 C 51 %
337 31-05-2017 19:16:17 20.3 C 51 %
338 31-05-2017 19:28:17 20.3 C 52 %
339 31-05-2017 19:40:17 20.3 C 52 %
340 31-05-2017 19:53:17 20.3 C 52 %
341 31-05-2017 20:04:17 20.3 C 52 %
342 31-05-2017 20:16:17 20.2 C 53 %
343 31-05-2017 20:28:17 20.2 C 53 %
344 31-05-2017 20:41:17 20.2 C 53 %
345 31-05-2017 20:53:17 20.2 C 54 %
346 31-05-2017 21:04:17 20.1 C 54 %
347 31-05-2017 21:16:17 20.1 C 54 %
348 31-05-2017 21:28:17 20 C 55 %
349 31-05-2017 21:40:17 20 C 55 %
350 31-05-2017 21:52:17 20 C 55 %
Sensor: Nr:Datum:Temp:Feuchte:
G-T/H 351 31-05-2017 22:05:17 20 C 55 %
352 31-05-2017 22:16:17 19.9 C 56 %
353 31-05-2017 22:28:17 19.9 C 57 %
354 31-05-2017 22:40:18 19.8 C 57 %
355 31-05-2017 22:53:17 19.8 C 57 %
356 31-05-2017 23:05:17 19.8 C 57 %
357 31-05-2017 23:17:17 19.8 C 57 %
358 31-05-2017 23:29:17 19.7 C 57 %
359 31-05-2017 23:41:17 19.7 C 57 %
360 31-05-2017 23:53:17 19.7 C 58 %
361 01-06-2017 00:04:17 19.7 C 58 %
362 01-06-2017 00:17:17 19.7 C 58 %
363 01-06-2017 00:29:17 19.6 C 58 %
364 01-06-2017 00:40:17 19.6 C 58 %
365 01-06-2017 00:53:17 19.6 C 58 %
366 01-06-2017 01:05:17 19.5 C 58 %
367 01-06-2017 01:17:17 19.5 C 58 %
368 01-06-2017 01:29:17 19.5 C 58 %
369 01-06-2017 01:41:18 19.5 C 58 %
370 01-06-2017 01:53:17 19.4 C 59 %
371 01-06-2017 02:05:17 19.4 C 59 %
372 01-06-2017 02:17:17 19.4 C 59 %
373 01-06-2017 02:29:17 19.3 C 59 %
374 01-06-2017 02:41:17 19.3 C 59 %
375 01-06-2017 02:53:17 19.3 C 59 %
Sensor: Nr:Datum:Temp:Feuchte:
G-T/H 376 01-06-2017 03:05:17 19.3 C 59 %
377 01-06-2017 03:17:17 19.2 C 59 %
378 01-06-2017 03:29:17 19.2 C 59 %
379 01-06-2017 03:41:17 19.2 C 59 %
380 01-06-2017 03:53:17 19.1 C 59 %
381 01-06-2017 04:05:17 19.1 C 59 %
382 01-06-2017 04:17:18 19.1 C 59 %
383 01-06-2017 04:29:18 19 C 59 %
384 01-06-2017 04:41:17 19 C 59 %
385 01-06-2017 04:53:17 19 C 59 %
386 01-06-2017 05:05:17 18.9 C 60 %
387 01-06-2017 05:17:17 18.9 C 60 %
388 01-06-2017 05:29:17 18.9 C 61 %
389 01-06-2017 05:41:17 18.9 C 61 %
390 01-06-2017 05:53:17 18.8 C 61 %
391 01-06-2017 06:05:17 18.8 C 61 %
392 01-06-2017 06:17:17 18.8 C 61 %
393 01-06-2017 06:29:17 18.8 C 61 %
394 01-06-2017 06:41:17 18.7 C 61 %
395 01-06-2017 06:53:17 18.7 C 61 %
396 01-06-2017 07:05:17 18.7 C 61 %
397 01-06-2017 07:17:17 18.6 C 61 %
398 01-06-2017 07:29:17 18.6 C 61 %
399 01-06-2017 07:41:17 18.6 C 61 %
400 01-06-2017 07:53:17 18.6 C 61 %
Sensor: Nr:Datum:Temp:Feuchte:
G-T/H 401 01-06-2017 08:05:17 18.5 C 61 %
402 01-06-2017 08:17:17 18.5 C 61 %
403 01-06-2017 08:29:17 18.5 C 61 %
404 01-06-2017 08:41:17 18.5 C 61 %
405 01-06-2017 08:53:17 18.5 C 61 %
406 01-06-2017 09:05:17 18.5 C 61 %
407 01-06-2017 09:17:17 18.5 C 61 %
408 01-06-2017 09:29:17 18.5 C 61 %
409 01-06-2017 09:41:17 18.4 C 61 %
410 01-06-2017 09:53:17 18.4 C 61 %
411 01-06-2017 10:05:17 18.5 C 61 %
412 01-06-2017 10:17:18 18.4 C 61 %
413 01-06-2017 10:29:18 18.4 C 61 %
414 01-06-2017 10:41:17 18.4 C 61 %
415 01-06-2017 10:53:17 18.4 C 61 %
416 01-06-2017 11:05:17 18.5 C 61 %
417 01-06-2017 11:17:17 18.4 C 61 %
418 01-06-2017 11:29:17 18.4 C 61 %
419 01-06-2017 11:41:17 18.4 C 61 %
420 01-06-2017 11:53:17 18.4 C 61 %
421 01-06-2017 12:05:17 18.5 C 61 %
422 01-06-2017 12:17:17 18.5 C 61 %
423 01-06-2017 12:29:17 18.5 C 61 %
424 01-06-2017 12:41:17 18.5 C 61 %
425 01-06-2017 12:53:17 18.5 C 61 %
Sensor: Nr:Datum:Temp:Feuchte:
G-T/H 426 01-06-2017 13:05:17 18.6 C 61 %
427 01-06-2017 13:17:17 18.6 C 61 %
428 01-06-2017 13:29:17 18.6 C 61 %
429 01-06-2017 13:41:17 18.6 C 61 %
430 01-06-2017 13:53:17 18.7 C 61 %
431 01-06-2017 14:05:17 18.7 C 61 %
432 01-06-2017 14:17:18 18.7 C 61 %
433 01-06-2017 14:29:18 18.7 C 61 %
434 01-06-2017 14:41:18 18.8 C 61 %
435 01-06-2017 14:53:17 18.8 C 61 %
436 01-06-2017 15:05:17 18.9 C 61 %
437 01-06-2017 15:17:17 18.9 C 61 %
438 01-06-2017 15:29:17 19 C 60 %
439 01-06-2017 15:41:18 19 C 60 %
440 01-06-2017 15:53:17 19 C 60 %
441 01-06-2017 16:05:17 19.1 C 60 %
442 01-06-2017 16:17:17 19.1 C 60 %
443 01-06-2017 16:29:17 19.1 C 60 %
444 01-06-2017 16:41:17 19.1 C 60 %
445 01-06-2017 16:53:16 19.2 C 60 %
446 01-06-2017 17:05:17 19.2 C 60 %
447 01-06-2017 17:17:17 19.3 C 60 %
448 01-06-2017 17:29:17 19.3 C 60 %
449 01-06-2017 17:41:17 19.3 C 60 %
450 01-06-2017 17:53:17 19.4 C 60 %
Sensor: Nr:Datum:Temp:Feuchte:
G-T/H 451 01-06-2017 18:05:17 19.4 C 60 %
452 01-06-2017 18:17:17 19.3 C 60 %
453 01-06-2017 18:29:17 19.4 C 60 %
454 01-06-2017 18:41:17 19.4 C 60 %
455 01-06-2017 18:53:17 19.4 C 60 %
456 01-06-2017 19:05:17 19.5 C 60 %
457 01-06-2017 19:17:17 19.5 C 60 %
458 01-06-2017 19:29:17 19.5 C 60 %
459 01-06-2017 19:41:17 19.5 C 61 %
460 01-06-2017 19:53:17 19.5 C 61 %
461 01-06-2017 20:05:17 19.5 C 61 %
462 01-06-2017 20:17:17 19.5 C 61 %
463 01-06-2017 20:29:17 19.5 C 61 %
464 01-06-2017 20:41:17 19.5 C 61 %
465 01-06-2017 20:53:17 19.5 C 61 %
466 01-06-2017 21:05:17 19.5 C 61 %
467 01-06-2017 21:17:17 19.5 C 61 %
468 01-06-2017 21:29:17 19.5 C 62 %
469 01-06-2017 21:41:18 19.5 C 62 %
470 01-06-2017 21:53:17 19.4 C 62 %
471 01-06-2017 22:05:17 19.4 C 62 %
472 01-06-2017 22:17:17 19.5 C 62 %
473 01-06-2017 22:29:17 19.4 C 62 %
474 01-06-2017 22:41:17 19.4 C 62 %
475 01-06-2017 22:53:17 19.3 C 62 %
Sensor: Nr:Datum:Temp:Feuchte:
G-T/H 476 01-06-2017 23:05:17 19.3 C 62 %
477 01-06-2017 23:17:17 19.3 C 62 %
478 01-06-2017 23:29:17 19.3 C 62 %
479 01-06-2017 23:41:17 19.3 C 62 %
480 01-06-2017 23:53:17 19.3 C 62 %
481 02-06-2017 00:05:17 19.3 C 62 %
482 02-06-2017 00:17:17 19.3 C 62 %
483 02-06-2017 00:29:17 19.3 C 62 %
484 02-06-2017 00:41:17 19.2 C 62 %
485 02-06-2017 00:53:17 19.3 C 62 %
486 02-06-2017 01:05:17 19.2 C 62 %
487 02-06-2017 01:17:17 19.2 C 62 %
488 02-06-2017 01:29:17 19.2 C 62 %
489 02-06-2017 01:41:17 19.2 C 62 %
490 02-06-2017 01:53:17 19.1 C 62 %
491 02-06-2017 02:05:17 19.1 C 62 %
492 02-06-2017 02:17:17 19.1 C 62 %
493 02-06-2017 02:29:17 19.1 C 62 %
494 02-06-2017 02:41:17 19.1 C 62 %
495 02-06-2017 02:53:17 19.1 C 62 %
496 02-06-2017 03:05:18 19 C 63 %
497 02-06-2017 03:17:16 19 C 63 %
498 02-06-2017 03:29:17 19 C 63 %
499 02-06-2017 03:41:17 19 C 63 %
500 02-06-2017 03:53:17 18.9 C 64 %
Sensor: Nr:Datum:Temp:Feuchte:
G-T/H 501 02-06-2017 04:05:17 18.9 C 64 %
502 02-06-2017 04:17:17 18.9 C 64 %
503 02-06-2017 04:29:17 18.9 C 64 %
504 02-06-2017 04:41:17 18.9 C 64 %
505 02-06-2017 04:53:17 18.9 C 64 %
506 02-06-2017 05:05:17 18.9 C 64 %
507 02-06-2017 05:17:17 18.8 C 64 %
508 02-06-2017 05:29:17 18.8 C 64 %
509 02-06-2017 05:41:17 18.8 C 64 %
510 02-06-2017 05:53:17 18.8 C 64 %
511 02-06-2017 06:05:17 18.8 C 64 %
512 02-06-2017 06:17:17 18.7 C 64 %
513 02-06-2017 06:29:17 18.7 C 64 %
514 02-06-2017 06:41:17 18.7 C 64 %
515 02-06-2017 06:53:17 18.7 C 64 %
516 02-06-2017 07:05:17 18.7 C 64 %
517 02-06-2017 07:17:17 18.6 C 64 %
518 02-06-2017 07:29:17 18.6 C 64 %
519 02-06-2017 07:41:17 18.6 C 64 %
520 02-06-2017 07:53:17 18.6 C 64 %
521 02-06-2017 08:05:17 18.6 C 64 %
522 02-06-2017 08:17:17 18.6 C 64 %
523 02-06-2017 08:29:17 18.6 C 64 %
524 02-06-2017 08:41:17 18.6 C 64 %
525 02-06-2017 08:53:17 18.6 C 64 %
Sensor: Nr:Datum:Temp:Feuchte:
G-T/H 526 02-06-2017 09:05:17 18.6 C 64 %
527 02-06-2017 09:17:17 18.6 C 64 %
528 02-06-2017 09:29:17 18.6 C 64 %
529 02-06-2017 09:41:17 18.6 C 64 %
530 02-06-2017 09:53:17 18.6 C 64 %
531 02-06-2017 10:05:17 18.6 C 64 %
532 02-06-2017 10:17:17 18.6 C 64 %
533 02-06-2017 10:29:17 18.6 C 64 %
534 02-06-2017 10:41:17 18.6 C 64 %
535 02-06-2017 10:53:16 18.7 C 64 %
536 02-06-2017 11:05:18 18.7 C 64 %
537 02-06-2017 11:17:17 18.7 C 64 %
538 02-06-2017 11:29:17 18.7 C 64 %
539 02-06-2017 11:41:17 18.7 C 64 %
540 02-06-2017 11:53:17 18.7 C 64 %
541 02-06-2017 12:05:17 18.7 C 64 %
542 02-06-2017 12:17:17 18.7 C 64 %
543 02-06-2017 12:29:17 18.7 C 64 %
544 02-06-2017 12:41:17 18.8 C 64 %
545 02-06-2017 12:53:17 18.8 C 64 %
546 02-06-2017 13:05:17 18.8 C 64 %
547 02-06-2017 13:17:17 18.9 C 64 %
548 02-06-2017 13:29:17 18.9 C 64 %
549 02-06-2017 13:41:17 18.9 C 64 %
550 02-06-2017 13:53:17 19 C 63 %
Sensor: Nr:Datum:Temp:Feuchte:
G-T/H 551 02-06-2017 14:05:17 20.7 C 66 %
552 02-06-2017 14:17:17 21.1 C 68 %
553 02-06-2017 14:29:17 21.1 C 67 %
554 02-06-2017 14:41:17 21.1 C 64 %
555 02-06-2017 14:53:17 21.2 C 63 %
556 02-06-2017 15:05:17 21 C 63 %
557 02-06-2017 15:17:17 21 C 63 %
558 02-06-2017 15:29:17 20.8 C 64 %
559 02-06-2017 15:41:17 20.8 C 64 %
560 02-06-2017 15:53:17 20.7 C 64 %
561 02-06-2017 16:05:17 20.7 C 64 %
562 02-06-2017 16:17:17 20.6 C 64 %
563 02-06-2017 16:29:17 20.6 C 64 %
564 02-06-2017 16:41:17 20.5 C 64 %
565 02-06-2017 16:53:17 20.4 C 64 %
566 02-06-2017 17:05:17 20.4 C 64 %
567 02-06-2017 17:17:17 20.4 C 65 %
568 02-06-2017 17:29:17 20.4 C 65 %
569 02-06-2017 17:41:17 20.4 C 65 %
570 02-06-2017 17:53:17 20.4 C 65 %
571 02-06-2017 18:05:17 20.3 C 65 %
572 02-06-2017 18:17:17 20.3 C 65 %
573 02-06-2017 18:29:17 20.3 C 65 %
574 02-06-2017 18:41:17 20.3 C 65 %
575 02-06-2017 18:53:17 20.2 C 65 %
Sensor: Nr:Datum:Temp:Feuchte:
G-T/H 576 02-06-2017 19:05:17 20.2 C 65 %
577 02-06-2017 19:17:17 20.1 C 65 %
578 02-06-2017 19:29:17 20.1 C 65 %
579 02-06-2017 19:41:17 20.1 C 65 %
580 02-06-2017 19:53:17 20.1 C 65 %
581 02-06-2017 20:05:17 20 C 65 %
582 02-06-2017 20:17:18 20 C 65 %
583 02-06-2017 20:29:18 20 C 65 %
584 02-06-2017 20:41:17 20 C 65 %
585 02-06-2017 20:53:17 20 C 65 %
586 02-06-2017 21:05:18 19.9 C 66 %
587 02-06-2017 21:17:17 19.9 C 66 %
588 02-06-2017 21:29:17 19.9 C 66 %
589 02-06-2017 21:41:17 19.8 C 66 %
590 02-06-2017 21:53:17 19.8 C 66 %
591 02-06-2017 22:05:17 19.8 C 66 %
592 02-06-2017 22:17:17 19.8 C 66 %
593 02-06-2017 22:29:17 19.7 C 66 %
594 02-06-2017 22:41:17 19.7 C 66 %
595 02-06-2017 22:53:17 19.7 C 66 %
596 02-06-2017 23:05:17 19.7 C 66 %
597 02-06-2017 23:17:17 19.6 C 66 %
598 02-06-2017 23:29:17 19.6 C 66 %
599 02-06-2017 23:41:17 19.6 C 66 %
600 02-06-2017 23:53:17 19.6 C 66 %
Sensor: Nr:Datum:Temp:Feuchte:
G-T/H 601 03-06-2017 00:05:17 19.5 C 66 %
602 03-06-2017 00:17:17 19.5 C 66 %
603 03-06-2017 00:29:17 19.5 C 66 %
604 03-06-2017 00:41:17 19.5 C 66 %
605 03-06-2017 00:53:17 19.5 C 66 %
606 03-06-2017 01:05:17 19.4 C 66 %
607 03-06-2017 01:17:17 19.4 C 66 %
608 03-06-2017 01:29:17 19.4 C 66 %
609 03-06-2017 01:41:17 19.3 C 66 %
610 03-06-2017 01:53:17 19.3 C 66 %
611 03-06-2017 02:05:17 19.3 C 66 %
612 03-06-2017 02:17:17 19.3 C 66 %
613 03-06-2017 02:29:17 19.3 C 66 %
614 03-06-2017 02:41:17 19.2 C 66 %
615 03-06-2017 02:53:17 19.2 C 66 %
616 03-06-2017 03:05:17 19.2 C 66 %
617 03-06-2017 03:17:17 19.2 C 66 %
618 03-06-2017 03:29:17 19.2 C 66 %
619 03-06-2017 03:41:17 19.1 C 66 %
620 03-06-2017 03:53:17 19.1 C 67 %
621 03-06-2017 04:05:17 19.1 C 67 %
622 03-06-2017 04:17:17 19.1 C 67 %
623 03-06-2017 04:29:17 19 C 67 %
624 03-06-2017 04:41:17 19 C 67 %
625 03-06-2017 04:53:17 19 C 67 %
Sensor: Nr:Datum:Temp:Feuchte:
G-T/H 626 03-06-2017 05:05:17 19 C 67 %
627 03-06-2017 05:17:17 19 C 67 %
628 03-06-2017 05:29:17 18.9 C 68 %
629 03-06-2017 05:41:17 18.9 C 68 %
630 03-06-2017 05:53:17 18.9 C 68 %
631 03-06-2017 06:05:17 18.9 C 68 %
632 03-06-2017 06:17:17 18.9 C 68 %
633 03-06-2017 06:29:17 18.9 C 68 %
634 03-06-2017 06:41:17 18.9 C 68 %
635 03-06-2017 06:53:17 18.9 C 68 %
636 03-06-2017 07:05:17 18.8 C 68 %
637 03-06-2017 07:17:17 18.8 C 68 %
638 03-06-2017 07:29:17 18.8 C 68 %
639 03-06-2017 07:41:17 18.8 C 68 %
640 03-06-2017 07:53:17 18.8 C 68 %
641 03-06-2017 08:05:17 18.8 C 68 %
642 03-06-2017 08:17:17 18.8 C 68 %
643 03-06-2017 08:29:17 18.7 C 68 %
644 03-06-2017 08:41:17 18.7 C 68 %
645 03-06-2017 08:53:17 18.7 C 68 %
646 03-06-2017 09:05:17 18.7 C 68 %
647 03-06-2017 09:17:17 18.7 C 68 %
648 03-06-2017 09:29:17 18.7 C 68 %
649 03-06-2017 09:41:17 18.7 C 68 %
650 03-06-2017 09:53:17 18.7 C 68 %
Sensor: Nr:Datum:Temp:Feuchte:
G-T/H 651 03-06-2017 10:05:17 18.7 C 68 %
652 03-06-2017 10:17:17 18.7 C 68 %
653 03-06-2017 10:29:17 18.7 C 68 %
654 03-06-2017 10:41:17 18.7 C 68 %
655 03-06-2017 10:53:17 18.7 C 68 %
656 03-06-2017 11:05:17 18.7 C 68 %
657 03-06-2017 11:17:17 18.7 C 68 %
658 03-06-2017 11:29:17 18.7 C 68 %
659 03-06-2017 11:41:17 18.7 C 68 %
660 03-06-2017 11:53:17 18.7 C 68 %
661 03-06-2017 12:05:17 18.7 C 68 %
662 03-06-2017 12:17:17 18.7 C 68 %
663 03-06-2017 12:29:17 18.7 C 68 %
664 03-06-2017 12:41:18 18.8 C 68 %
665 03-06-2017 12:53:17 18.7 C 68 %
666 03-06-2017 13:05:17 18.9 C 69 %
667 03-06-2017 13:17:17 18.9 C 69 %
668 03-06-2017 13:29:17 18.9 C 69 %
669 03-06-2017 13:41:17 18.8 C 69 %
670 03-06-2017 13:53:17 18.8 C 69 %
671 03-06-2017 14:05:17 18.8 C 69 %
672 03-06-2017 14:17:17 18.8 C 69 %
673 03-06-2017 14:29:17 18.8 C 69 %
674 03-06-2017 14:41:17 18.8 C 69 %
675 03-06-2017 14:53:17 18.8 C 69 %
Sensor: Nr:Datum:Temp:Feuchte:
G-T/H 676 03-06-2017 15:05:17 18.8 C 69 %
677 03-06-2017 15:17:17 18.9 C 69 %
678 03-06-2017 15:29:17 18.9 C 69 %
679 03-06-2017 15:41:17 18.9 C 69 %
680 03-06-2017 15:53:17 18.9 C 69 %
681 03-06-2017 16:05:17 18.9 C 69 %
682 03-06-2017 16:17:17 18.9 C 69 %
683 03-06-2017 16:29:17 18.9 C 69 %
684 03-06-2017 16:41:17 18.9 C 69 %
685 03-06-2017 16:53:17 19 C 68 %
686 03-06-2017 17:05:17 19 C 68 %
687 03-06-2017 17:17:17 19 C 68 %
688 03-06-2017 17:29:17 19 C 68 %
689 03-06-2017 17:41:17 19 C 68 %
690 03-06-2017 17:53:17 19 C 68 %
691 03-06-2017 18:05:17 19 C 68 %
692 03-06-2017 18:17:17 19 C 68 %
693 03-06-2017 18:29:17 19.1 C 68 %
694 03-06-2017 18:41:17 19.1 C 69 %
695 03-06-2017 18:53:17 19.1 C 69 %
696 03-06-2017 19:05:17 19.1 C 69 %
697 03-06-2017 19:17:17 19.1 C 69 %
698 03-06-2017 19:29:17 19.1 C 69 %
699 03-06-2017 19:41:17 19.1 C 69 %
700 03-06-2017 19:53:17 19.1 C 69 %
Sensor: Nr:Datum:Temp:Feuchte:
G-T/H 701 03-06-2017 20:05:17 19.1 C 69 %
702 03-06-2017 20:17:17 19.1 C 69 %
703 03-06-2017 20:29:17 19.1 C 69 %
704 03-06-2017 20:41:17 19 C 69 %
705 03-06-2017 20:53:17 19 C 69 %
706 03-06-2017 21:05:17 19 C 69 %
707 03-06-2017 21:17:17 19 C 69 %
708 03-06-2017 21:29:17 19 C 69 %
709 03-06-2017 21:41:17 19 C 69 %
710 03-06-2017 21:53:17 19 C 69 %
711 03-06-2017 22:05:17 19 C 69 %
712 03-06-2017 22:17:17 19 C 69 %
713 03-06-2017 22:29:17 19 C 69 %
714 03-06-2017 22:41:17 19 C 69 %
715 03-06-2017 22:53:17 18.9 C 70 %
716 03-06-2017 23:05:17 18.9 C 70 %
717 03-06-2017 23:17:17 18.9 C 70 %
718 03-06-2017 23:29:17 18.9 C 70 %
719 03-06-2017 23:41:17 18.9 C 70 %
720 03-06-2017 23:53:17 18.9 C 70 %
721 04-06-2017 00:05:17 18.9 C 70 %
722 04-06-2017 00:17:17 18.9 C 70 %
723 04-06-2017 00:29:17 18.9 C 70 %
724 04-06-2017 00:41:17 18.8 C 70 %
725 04-06-2017 00:53:17 18.9 C 70 %
Sensor: Nr:Datum:Temp:Feuchte:
G-T/H 726 04-06-2017 01:05:17 18.8 C 70 %
727 04-06-2017 01:17:17 18.8 C 70 %
728 04-06-2017 01:29:17 18.8 C 70 %
729 04-06-2017 01:41:17 18.8 C 70 %
730 04-06-2017 01:53:17 18.8 C 70 %
731 04-06-2017 02:05:17 18.7 C 70 %
732 04-06-2017 02:17:17 18.7 C 70 %
733 04-06-2017 02:29:17 18.7 C 70 %
734 04-06-2017 02:41:17 18.7 C 70 %
735 04-06-2017 02:53:17 18.7 C 70 %
736 04-06-2017 03:05:17 18.7 C 70 %
737 04-06-2017 03:17:17 18.6 C 69 %
738 04-06-2017 03:29:17 18.6 C 69 %
739 04-06-2017 03:41:17 18.6 C 69 %
740 04-06-2017 03:53:17 18.6 C 69 %
741 04-06-2017 04:05:17 18.6 C 69 %
742 04-06-2017 04:17:18 18.5 C 69 %
743 04-06-2017 04:29:18 18.5 C 69 %
744 04-06-2017 04:41:17 18.5 C 69 %
745 04-06-2017 04:53:17 18.5 C 69 %
746 04-06-2017 05:05:17 18.4 C 69 %
747 04-06-2017 05:17:17 18.4 C 69 %
748 04-06-2017 05:29:17 18.4 C 69 %
749 04-06-2017 05:41:17 18.4 C 69 %
750 04-06-2017 05:53:17 18.4 C 69 %
Sensor: Nr:Datum:Temp:Feuchte:
G-T/H 751 04-06-2017 06:05:17 18.3 C 69 %
752 04-06-2017 06:17:17 18.3 C 69 %
753 04-06-2017 06:29:17 18.3 C 69 %
754 04-06-2017 06:41:17 18.3 C 69 %
755 04-06-2017 06:53:16 18.3 C 69 %
756 04-06-2017 07:05:17 18.3 C 69 %
757 04-06-2017 07:17:17 18.3 C 69 %
758 04-06-2017 07:29:17 18.2 C 69 %
759 04-06-2017 07:41:17 18.2 C 69 %
760 04-06-2017 07:53:17 18.2 C 69 %
761 04-06-2017 08:05:17 18.2 C 69 %
762 04-06-2017 08:17:17 18.2 C 69 %
763 04-06-2017 08:29:17 18.1 C 69 %
764 04-06-2017 08:41:17 18.1 C 69 %
765 04-06-2017 08:53:17 18.1 C 69 %
766 04-06-2017 09:05:17 18.1 C 69 %
767 04-06-2017 09:17:17 18.1 C 69 %
768 04-06-2017 09:29:17 18.1 C 69 %
769 04-06-2017 09:41:17 18.1 C 69 %
770 04-06-2017 09:53:17 18.1 C 69 %
771 04-06-2017 10:05:17 18 C 69 %
772 04-06-2017 10:17:17 18.1 C 69 %
773 04-06-2017 10:29:17 18 C 69 %
774 04-06-2017 10:41:17 18 C 69 %
775 04-06-2017 10:53:17 18 C 69 %
Sensor: Nr:Datum:Temp:Feuchte:
G-T/H 776 04-06-2017 11:05:17 18 C 69 %
777 04-06-2017 11:17:17 18 C 69 %
778 04-06-2017 11:29:17 18 C 69 %
779 04-06-2017 11:41:18 18 C 69 %
780 04-06-2017 11:53:17 18 C 69 %
781 04-06-2017 12:05:17 18 C 69 %
782 04-06-2017 12:17:16 18.1 C 68 %
783 04-06-2017 12:29:16 18 C 68 %
784 04-06-2017 12:41:17 18 C 68 %
785 04-06-2017 12:53:17 18 C 68 %
786 04-06-2017 13:05:17 18 C 68 %
787 04-06-2017 13:17:17 18 C 68 %
788 04-06-2017 13:29:17 18.1 C 68 %
789 04-06-2017 13:41:17 18.1 C 68 %
790 04-06-2017 13:53:17 18 C 68 %
791 04-06-2017 14:05:17 18.1 C 68 %
792 04-06-2017 14:17:17 18.1 C 68 %
793 04-06-2017 14:29:17 18.1 C 68 %
794 04-06-2017 14:41:17 18.1 C 68 %
795 04-06-2017 14:53:17 18.1 C 68 %
796 04-06-2017 15:05:17 18.1 C 68 %
797 04-06-2017 15:17:17 18.1 C 67 %
798 04-06-2017 15:29:17 18.1 C 67 %
799 04-06-2017 15:41:17 18.1 C 67 %
800 04-06-2017 15:53:17 18.1 C 66 %
Sensor: Nr:Datum:Temp:Feuchte:
G-T/H 801 04-06-2017 16:05:17 18.1 C 66 %
802 04-06-2017 16:17:17 18.1 C 66 %
803 04-06-2017 16:29:17 18.1 C 66 %
804 04-06-2017 16:41:17 18.2 C 66 %
805 04-06-2017 16:53:17 18.2 C 66 %
806 04-06-2017 17:05:17 18.2 C 66 %
807 04-06-2017 17:17:17 18.2 C 66 %
808 04-06-2017 17:29:17 18.2 C 67 %
809 04-06-2017 17:41:18 18.2 C 66 %
810 04-06-2017 17:53:17 18.3 C 67 %
811 04-06-2017 18:05:17 18.2 C 67 %
812 04-06-2017 18:17:17 18.2 C 67 %
813 04-06-2017 18:29:17 18.2 C 67 %
814 04-06-2017 18:41:17 18.2 C 67 %
815 04-06-2017 18:53:17 18.2 C 66 %
816 04-06-2017 19:05:18 18.2 C 66 %
817 04-06-2017 19:17:17 18.2 C 66 %
818 04-06-2017 19:29:17 18.2 C 66 %
819 04-06-2017 19:41:17 18.2 C 66 %
820 04-06-2017 19:53:17 18.2 C 66 %
821 04-06-2017 20:05:17 18.2 C 66 %
822 04-06-2017 20:17:17 18.1 C 66 %
823 04-06-2017 20:29:17 18.2 C 67 %
824 04-06-2017 20:41:17 18.1 C 67 %
825 04-06-2017 20:53:17 18.1 C 67 %
Sensor: Nr:Datum:Temp:Feuchte:
G-T/H 826 04-06-2017 21:05:17 18.1 C 67 %
827 04-06-2017 21:17:16 18.1 C 67 %
828 04-06-2017 21:29:17 18.1 C 67 %
829 04-06-2017 21:41:17 18.1 C 67 %
830 04-06-2017 21:53:17 18 C 67 %
831 04-06-2017 22:05:17 18.1 C 67 %
832 04-06-2017 22:17:17 18 C 67 %
833 04-06-2017 22:29:17 18 C 67 %
834 04-06-2017 22:41:17 18 C 68 %
835 04-06-2017 22:53:17 18 C 68 %
836 04-06-2017 23:05:17 17.9 C 69 %
837 04-06-2017 23:17:17 17.9 C 69 %
838 04-06-2017 23:29:17 17.9 C 69 %
839 04-06-2017 23:41:17 17.9 C 69 %
840 04-06-2017 23:53:17 17.9 C 69 %

Legende:
   Min
   Max


Maximal/Minimal-Werte vom 29.05.2017 - 04.06.2017

Sensor Min Max Avg
Temp
(Aussen-T/F)
11.5 °C
01-06-2017  05:29:17
44.6 °C
29-05-2017  17:52:17
20.55 °C
Feuchte
(Aussen-T/F)
20 %
29-05-2017  10:28:17
62 %
29-05-2017  04:28:17
28.52 %
Temp
(G-T/H)
16.3 °C
31-05-2017  06:16:17
28.4 °C
29-05-2017  17:40:17
19.93 °C
Feuchte
(G-T/H)
36 %
29-05-2017  17:16:17
82 %
29-05-2017  11:16:17
62.29 %

Die Daten stammen von einer Davis Vantage Pro 2 Wetter-Station und werden unter Linux mit der Software wview2wettercgi und aufbereitet. Alle Angaben erfolgen ohne Gewähr für ihre Vollständigkeit oder Richtigkeit.
Kontakt: Rainer Krienke krienke@uni-koblenz.de . Meine Webseiten an der Uni Koblenz oder privat.
Version: $Revision: 0.78 $